Observation data for Stamford on 07/11/2020      Previous  Date  Next       Current Mesonet Observations  Soil Data  Daily Summary Page  Observations in Plain Language
KST2 110500Z 14007KT 29/22 A2997 RMK A01 T02870216  RH  066%=      5-min Rain = 0
KST2 110501Z 14008KT 29/22 A2997 RMK A01 T02870217  RH  066%=      5-min Rain = 0
KST2 110502Z 14007KT 29/22 A2997 RMK A01 T02870216  RH  066%=      5-min Rain = 0
KST2 110503Z 14007KT 29/22 A2997 RMK A01 T02870216  RH  066%=      5-min Rain = 0
KST2 110504Z 14007KT 29/22 A2997 RMK A01 T02870217  RH  066%=      5-min Rain = 0
KST2 110505Z 14006KT 29/22 A2997 RMK A01 T02860216  RH  066%=      5-min Rain = 0
KST2 110506Z 14007KT 29/22 A2997 RMK A01 T02860216  RH  066%=      5-min Rain = 0
KST2 110507Z 14007KT 29/22 A2997 RMK A01 T02860216  RH  066%=      5-min Rain = 0
KST2 110508Z 14007KT 29/22 A2997 RMK A01 T02860216  RH  066%=      5-min Rain = 0
KST2 110509Z 14007KT 29/22 A2997 RMK A01 T02860216  RH  066%=      5-min Rain = 0
KST2 110510Z 14007KT 29/22 A2997 RMK A01 T02850216  RH  066%=      5-min Rain = 0
KST2 110511Z 14007KT 29/22 A2997 RMK A01 T02850216  RH  066%=      5-min Rain = 0
KST2 110512Z 14007KT 29/22 A2997 RMK A01 T02850216  RH  066%=      5-min Rain = 0
KST2 110513Z 14007KT 29/22 A2997 RMK A01 T02850217  RH  067%=      5-min Rain = 0
KST2 110514Z 14007KT 28/22 A2997 RMK A01 T02840216  RH  067%=      5-min Rain = 0
KST2 110515Z 14007KT 28/22 A2997 RMK A01 T02840216  RH  067%=      5-min Rain = 0
KST2 110516Z 14007KT 28/22 A2997 RMK A01 T02840217  RH  067%=      5-min Rain = 0
KST2 110517Z 15007KT 28/22 A2997 RMK A01 T02830216  RH  067%=      5-min Rain = 0
KST2 110518Z 14006KT 28/22 A2997 RMK A01 T02830216  RH  067%=      5-min Rain = 0
KST2 110519Z 14007KT 28/22 A2997 RMK A01 T02830216  RH  067%=      5-min Rain = 0
KST2 110520Z 14007KT 28/22 A2997 RMK A01 T02830216  RH  067%=      5-min Rain = 0
KST2 110521Z 14007KT 28/22 A2997 RMK A01 T02830216  RH  067%=      5-min Rain = 0
KST2 110522Z 14006KT 28/22 A2997 RMK A01 T02830216  RH  067%=      5-min Rain = 0
KST2 110523Z 14007KT 28/22 A2997 RMK A01 T02830216  RH  067%=      5-min Rain = 0
KST2 110524Z 14007KT 28/22 A2997 RMK A01 T02830217  RH  067%=      5-min Rain = 0
KST2 110525Z 14007KT 28/22 A2997 RMK A01 T02830217  RH  067%=      5-min Rain = 0
KST2 110526Z 14007KT 28/22 A2997 RMK A01 T02830217  RH  067%=      5-min Rain = 0
KST2 110527Z 14007KT 28/22 A2997 RMK A01 T02830217  RH  067%=      5-min Rain = 0
KST2 110528Z 14007KT 28/22 A2997 RMK A01 T02820216  RH  067%=      5-min Rain = 0
KST2 110529Z 14007KT 28/22 A2997 RMK A01 T02830217  RH  067%=      5-min Rain = 0
KST2 110530Z 14007KT 28/22 A2997 RMK A01 T02830217  RH  068%=      5-min Rain = 0
KST2 110531Z 14007KT 28/22 A2997 RMK A01 T02830217  RH  067%=      5-min Rain = 0
KST2 110532Z 14007KT 28/22 A2997 RMK A01 T02830217  RH  067%=      5-min Rain = 0
KST2 110533Z 14007KT 28/22 A2997 RMK A01 T02820217  RH  068%=      5-min Rain = 0
KST2 110534Z 14007KT 28/22 A2997 RMK A01 T02820217  RH  068%=      5-min Rain = 0
KST2 110535Z 14006KT 28/22 A2997 RMK A01 T02820217  RH  068%=      5-min Rain = 0
KST2 110536Z 14007KT 28/22 A2997 RMK A01 T02820217  RH  068%=      5-min Rain = 0
KST2 110537Z 14007KT 28/22 A2997 RMK A01 T02820217  RH  068%=      5-min Rain = 0
KST2 110538Z 14007KT 28/22 A2997 RMK A01 T02810217  RH  068%=      5-min Rain = 0
KST2 110539Z 15007KT 28/22 A2997 RMK A01 T02810217  RH  068%=      5-min Rain = 0
KST2 110540Z 15007KT 28/22 A2997 RMK A01 T02810217  RH  068%=      5-min Rain = 0
KST2 110541Z 15007KT 28/22 A2997 RMK A01 T02810217  RH  068%=      5-min Rain = 0
KST2 110542Z 15007KT 28/22 A2997 RMK A01 T02810217  RH  068%=      5-min Rain = 0
KST2 110543Z 15007KT 28/22 A2997 RMK A01 T02810217  RH  068%=      5-min Rain = 0
KST2 110544Z 15007KT 28/22 A2997 RMK A01 T02800217  RH  068%=      5-min Rain = 0
KST2 110545Z 15007KT 28/22 A2997 RMK A01 T02800217  RH  069%=      5-min Rain = 0
KST2 110546Z 15007KT 28/22 A2997 RMK A01 T02800217  RH  069%=      5-min Rain = 0
KST2 110547Z 15007KT 28/22 A2997 RMK A01 T02800217  RH  069%=      5-min Rain = 0
KST2 110548Z 15007KT 28/22 A2997 RMK A01 T02790217  RH  069%=      5-min Rain = 0
KST2 110549Z 15007KT 28/22 A2997 RMK A01 T02790217  RH  069%=      5-min Rain = 0
KST2 110550Z 15007KT 28/22 A2997 RMK A01 T02790217  RH  069%=      5-min Rain = 0
KST2 110551Z 15006KT 28/22 A2997 RMK A01 T02790217  RH  069%=      5-min Rain = 0
KST2 110552Z 15006KT 28/22 A2998 RMK A01 T02790217  RH  069%=      5-min Rain = 0
KST2 110553Z 15006KT 28/22 A2998 RMK A01 T02790217  RH  069%=      5-min Rain = 0
KST2 110554Z 14006KT 28/22 A2998 RMK A01 T02790217  RH  069%=      5-min Rain = 0
KST2 110555Z 15005KT 28/22 A2998 RMK A01 T02790217  RH  069%=      5-min Rain = 0
KST2 110556Z 14005KT 28/22 A2998 RMK A01 T02790217  RH  069%=      5-min Rain = 0
KST2 110557Z 15005KT 28/22 A2998 RMK A01 T02790217  RH  069%=      5-min Rain = 0
KST2 110558Z 14004KT 28/22 A2998 RMK A01 T02790217  RH  069%=      5-min Rain = 0
KST2 110559Z 14004KT 28/22 A2998 RMK A01 T02790217  RH  069%=      5-min Rain = 0
KST2 110600Z 14004KT 28/22 A2998 RMK A01 T02790217  RH  069%=      5-min Rain = 0
KST2 110601Z 14004KT 28/22 A2998 RMK A01 T02790217  RH  069%=      5-min Rain = 0
KST2 110602Z 14004KT 28/22 A2998 RMK A01 T02790217  RH  069%=      5-min Rain = 0
KST2 110603Z 14004KT 28/22 A2998 RMK A01 T02790217  RH  069%=      5-min Rain = 0
KST2 110604Z 15005KT 28/22 A2998 RMK A01 T02780217  RH  069%=      5-min Rain = 0
KST2 110605Z 15005KT 28/22 A2998 RMK A01 T02780217  RH  069%=      5-min Rain = 0
KST2 110606Z 15005KT 28/22 A2998 RMK A01 T02780217  RH  069%=      5-min Rain = 0
KST2 110607Z 15005KT 28/22 A2998 RMK A01 T02780217  RH  069%=      5-min Rain = 0
KST2 110608Z 15005KT 28/22 A2998 RMK A01 T02770217  RH  070%=      5-min Rain = 0
KST2 110609Z 15006KT 28/22 A2998 RMK A01 T02770217  RH  070%=      5-min Rain = 0
KST2 110610Z 15006KT 28/22 A2998 RMK A01 T02760217  RH  070%=      5-min Rain = 0
KST2 110611Z 15006KT 28/22 A2998 RMK A01 T02760216  RH  070%=      5-min Rain = 0
KST2 110612Z 15006KT 28/22 A2998 RMK A01 T02760217  RH  070%=      5-min Rain = 0
KST2 110613Z 15006KT 28/22 A2998 RMK A01 T02760217  RH  070%=      5-min Rain = 0
KST2 110614Z 15006KT 28/22 A2998 RMK A01 T02750217  RH  070%=      5-min Rain = 0
KST2 110615Z 15005KT 28/22 A2998 RMK A01 T02750217  RH  070%=      5-min Rain = 0
KST2 110616Z 15005KT 28/22 A2998 RMK A01 T02750217  RH  070%=      5-min Rain = 0
KST2 110617Z 15005KT 28/22 A2998 RMK A01 T02760217  RH  070%=      5-min Rain = 0
KST2 110618Z 15005KT 28/22 A2998 RMK A01 T02750217  RH  071%=      5-min Rain = 0
KST2 110619Z 15005KT 28/22 A2998 RMK A01 T02750217  RH  071%=      5-min Rain = 0
KST2 110620Z 15005KT 27/22 A2998 RMK A01 T02740217  RH  071%=      5-min Rain = 0
KST2 110621Z 15005KT 27/22 A2998 RMK A01 T02740216  RH  071%=      5-min Rain = 0
KST2 110622Z 15006KT 27/22 A2998 RMK A01 T02730217  RH  071%=      5-min Rain = 0
KST2 110623Z 15005KT 27/22 A2998 RMK A01 T02730216  RH  071%=      5-min Rain = 0
KST2 110624Z 15006KT 27/22 A2997 RMK A01 T02720217  RH  072%=      5-min Rain = 0
KST2 110625Z 15005KT 27/22 A2997 RMK A01 T02720217  RH  072%=      5-min Rain = 0
KST2 110626Z 16005KT 27/22 A2997 RMK A01 T02720216  RH  072%=      5-min Rain = 0
KST2 110627Z 16005KT 27/22 A2997 RMK A01 T02710216  RH  072%=      5-min Rain = 0
KST2 110628Z 15005KT 27/22 A2997 RMK A01 T02710216  RH  072%=      5-min Rain = 0
KST2 110629Z 15005KT 27/22 A2997 RMK A01 T02710217  RH  072%=      5-min Rain = 0
KST2 110630Z 15005KT 27/22 A2997 RMK A01 T02710217  RH  072%=      5-min Rain = 0
KST2 110631Z 15006KT 27/22 A2997 RMK A01 T02710217  RH  072%=      5-min Rain = 0
KST2 110632Z 15006KT 27/22 A2997 RMK A01 T02710217  RH  072%=      5-min Rain = 0
KST2 110633Z 15006KT 27/22 A2997 RMK A01 T02700216  RH  072%=      5-min Rain = 0
KST2 110634Z 15007KT 27/22 A2997 RMK A01 T02700217  RH  073%=      5-min Rain = 0
KST2 110635Z 14007KT 27/22 A2997 RMK A01 T02690217  RH  073%=      5-min Rain = 0
KST2 110636Z 15007KT 27/22 A2997 RMK A01 T02690216  RH  073%=      5-min Rain = 0
KST2 110637Z 14006KT 27/22 A2997 RMK A01 T02690216  RH  073%=      5-min Rain = 0
KST2 110638Z 15006KT 27/22 A2997 RMK A01 T02690216  RH  073%=      5-min Rain = 0
KST2 110639Z 15005KT 27/22 A2997 RMK A01 T02690217  RH  073%=      5-min Rain = 0
KST2 110640Z 15005KT 27/22 A2997 RMK A01 T02690217  RH  073%=      5-min Rain = 0
KST2 110641Z 15005KT 27/22 A2997 RMK A01 T02680216  RH  073%=      5-min Rain = 0
KST2 110642Z 15005KT 27/22 A2997 RMK A01 T02680217  RH  073%=      5-min Rain = 0
KST2 110643Z 15005KT 27/22 A2997 RMK A01 T02680217  RH  074%=      5-min Rain = 0
KST2 110644Z 15005KT 27/22 A2997 RMK A01 T02670216  RH  074%=      5-min Rain = 0
KST2 110645Z 15006KT 27/22 A2997 RMK A01 T02670216  RH  074%=      5-min Rain = 0
KST2 110646Z 15006KT 27/22 A2997 RMK A01 T02670216  RH  074%=      5-min Rain = 0
KST2 110647Z 14006KT 27/22 A2997 RMK A01 T02660216  RH  074%=      5-min Rain = 0
KST2 110648Z 14007KT 27/22 A2997 RMK A01 T02670216  RH  074%=      5-min Rain = 0
KST2 110649Z 14007KT 27/22 A2997 RMK A01 T02660216  RH  074%=      5-min Rain = 0
KST2 110650Z 14007KT 27/22 A2997 RMK A01 T02670216  RH  074%=      5-min Rain = 0
KST2 110651Z 14007KT 27/22 A2997 RMK A01 T02670216  RH  074%=      5-min Rain = 0
KST2 110652Z 14007KT 27/22 A2997 RMK A01 T02670217  RH  074%=      5-min Rain = 0
KST2 110653Z 14007KT 27/22 A2997 RMK A01 T02670217  RH  074%=      5-min Rain = 0
KST2 110654Z 14007KT 27/22 A2997 RMK A01 T02660216  RH  074%=      5-min Rain = 0
KST2 110655Z 14007KT 27/22 A2997 RMK A01 T02660217  RH  074%=      5-min Rain = 0
KST2 110656Z 14007KT 27/22 A2997 RMK A01 T02660217  RH  074%=      5-min Rain = 0
KST2 110657Z 15007KT 27/22 A2997 RMK A01 T02650216  RH  074%=      5-min Rain = 0
KST2 110658Z 14007KT 27/22 A2996 RMK A01 T02650216  RH  075%=      5-min Rain = 0
KST2 110659Z 14007KT 27/22 A2996 RMK A01 T02650216  RH  075%=      5-min Rain = 0
KST2 110700Z 14007KT 27/22 A2996 RMK A01 T02650216  RH  075%=      5-min Rain = 0
KST2 110701Z 14007KT 27/22 A2996 RMK A01 T02650216  RH  075%=      5-min Rain = 0
KST2 110702Z 14007KT 27/22 A2996 RMK A01 T02650216  RH  075%=      5-min Rain = 0
KST2 110703Z 15006KT 27/22 A2996 RMK A01 T02650216  RH  075%=      5-min Rain = 0
KST2 110704Z 15006KT 27/22 A2996 RMK A01 T02650217  RH  075%=      5-min Rain = 0
KST2 110705Z 15006KT 27/22 A2996 RMK A01 T02650217  RH  075%=      5-min Rain = 0
KST2 110706Z 15005KT 27/22 A2996 RMK A01 T02650217  RH  075%=      5-min Rain = 0
KST2 110707Z 15006KT 26/22 A2996 RMK A01 T02640216  RH  075%=      5-min Rain = 0
KST2 110708Z 15006KT 26/22 A2996 RMK A01 T02640217  RH  075%=      5-min Rain = 0
KST2 110709Z 15006KT 26/22 A2996 RMK A01 T02640217  RH  075%=      5-min Rain = 0
KST2 110710Z 15006KT 26/22 A2996 RMK A01 T02640216  RH  075%=      5-min Rain = 0
KST2 110711Z 15006KT 26/22 A2996 RMK A01 T02640217  RH  075%=      5-min Rain = 0
KST2 110712Z 15006KT 26/22 A2996 RMK A01 T02640216  RH  075%=      5-min Rain = 0
KST2 110713Z 15006KT 26/22 A2996 RMK A01 T02630216  RH  075%=      5-min Rain = 0
KST2 110714Z 15006KT 26/22 A2996 RMK A01 T02630216  RH  075%=      5-min Rain = 0
KST2 110715Z 15006KT 26/22 A2996 RMK A01 T02630216  RH  075%=      5-min Rain = 0
KST2 110716Z 15006KT 26/22 A2996 RMK A01 T02630216  RH  076%=      5-min Rain = 0
KST2 110717Z 14007KT 26/22 A2996 RMK A01 T02630216  RH  076%=      5-min Rain = 0
KST2 110718Z 14007KT 26/22 A2996 RMK A01 T02620216  RH  076%=      5-min Rain = 0
KST2 110719Z 14007KT 26/22 A2996 RMK A01 T02620216  RH  076%=      5-min Rain = 0
KST2 110720Z 14007KT 26/22 A2996 RMK A01 T02620216  RH  076%=      5-min Rain = 0
KST2 110721Z 14007KT 26/22 A2996 RMK A01 T02620216  RH  076%=      5-min Rain = 0
KST2 110722Z 14007KT 26/22 A2996 RMK A01 T02610216  RH  076%=      5-min Rain = 0
KST2 110723Z 14007KT 26/22 A2996 RMK A01 T02610216  RH  076%=      5-min Rain = 0
KST2 110724Z 14007KT 26/22 A2996 RMK A01 T02610216  RH  076%=      5-min Rain = 0
KST2 110725Z 14007KT 26/22 A2996 RMK A01 T02620216  RH  076%=      5-min Rain = 0
KST2 110726Z 14006KT 26/22 A2996 RMK A01 T02610215  RH  076%=      5-min Rain = 0
KST2 110727Z 14006KT 26/22 A2996 RMK A01 T02610215  RH  076%=      5-min Rain = 0
KST2 110728Z 14007KT 26/22 A2996 RMK A01 T02610215  RH  076%=      5-min Rain = 0
KST2 110729Z 14007KT 26/22 A2996 RMK A01 T02610215  RH  076%=      5-min Rain = 0
KST2 110730Z 14007KT 26/22 A2996 RMK A01 T02610216  RH  076%=      5-min Rain = 0
KST2 110731Z 14006KT 26/22 A2996 RMK A01 T02620216  RH  076%=      5-min Rain = 0
KST2 110732Z 14007KT 26/22 A2996 RMK A01 T02620216  RH  076%=      5-min Rain = 0
KST2 110733Z 14007KT 26/22 A2996 RMK A01 T02620216  RH  076%=      5-min Rain = 0
KST2 110734Z 14007KT 26/22 A2996 RMK A01 T02610216  RH  076%=      5-min Rain = 0
KST2 110735Z 14007KT 26/22 A2996 RMK A01 T02610216  RH  076%=      5-min Rain = 0
KST2 110736Z 14006KT 26/22 A2996 RMK A01 T02610216  RH  076%=      5-min Rain = 0
KST2 110737Z 14006KT 26/22 A2996 RMK A01 T02620216  RH  076%=      5-min Rain = 0
KST2 110738Z 15006KT 26/22 A2996 RMK A01 T02620216  RH  076%=      5-min Rain = 0
KST2 110739Z 14007KT 26/22 A2996 RMK A01 T02620216  RH  076%=      5-min Rain = 0
KST2 110740Z 14006KT 26/22 A2996 RMK A01 T02620216  RH  076%=      5-min Rain = 0
KST2 110741Z 14006KT 26/22 A2996 RMK A01 T02620216  RH  076%=      5-min Rain = 0
KST2 110742Z 14007KT 26/22 A2996 RMK A01 T02620216  RH  076%=      5-min Rain = 0
KST2 110743Z 14007KT 26/22 A2996 RMK A01 T02620216  RH  076%=      5-min Rain = 0
KST2 110744Z 14007KT 26/22 A2996 RMK A01 T02620216  RH  076%=      5-min Rain = 0
KST2 110745Z 13007KT 26/22 A2996 RMK A01 T02620216  RH  076%=      5-min Rain = 0
KST2 110746Z 13007KT 26/22 A2997 RMK A01 T02620216  RH  076%=      5-min Rain = 0
KST2 110747Z 13007KT 26/22 A2997 RMK A01 T02620216  RH  076%=      5-min Rain = 0
KST2 110748Z 13007KT 26/22 A2997 RMK A01 T02620216  RH  076%=      5-min Rain = 0
KST2 110749Z 13007KT 26/22 A2997 RMK A01 T02620216  RH  076%=      5-min Rain = 0
KST2 110750Z 13007KT 26/22 A2997 RMK A01 T02620216  RH  076%=      5-min Rain = 0
KST2 110751Z 13008KT 26/22 A2997 RMK A01 T02620216  RH  075%=      5-min Rain = 0
KST2 110752Z 13008KT 26/22 A2997 RMK A01 T02620216  RH  075%=      5-min Rain = 0
KST2 110753Z 13007KT 26/22 A2997 RMK A01 T02630216  RH  075%=      5-min Rain = 0
KST2 110754Z 13007KT 26/22 A2997 RMK A01 T02630216  RH  075%=      5-min Rain = 0
KST2 110755Z 13007KT 26/22 A2997 RMK A01 T02630216  RH  075%=      5-min Rain = 0
KST2 110756Z 13007KT 26/22 A2997 RMK A01 T02620215  RH  075%=      5-min Rain = 0
KST2 110757Z 13007KT 26/22 A2997 RMK A01 T02620216  RH  076%=      5-min Rain = 0
KST2 110758Z 13007KT 26/22 A2997 RMK A01 T02620216  RH  076%=      5-min Rain = 0
KST2 110759Z 13007KT 26/22 A2997 RMK A01 T02620216  RH  076%=      5-min Rain = 0
KST2 110800Z 13007KT 26/22 A2996 RMK A01 T02620216  RH  076%=      5-min Rain = 0
KST2 110801Z 13007KT 26/22 A2996 RMK A01 T02620216  RH  076%=      5-min Rain = 0
KST2 110802Z 13007KT 26/22 A2996 RMK A01 T02610216  RH  076%=      5-min Rain = 0
KST2 110803Z 14007KT 26/22 A2996 RMK A01 T02610216  RH  076%=      5-min Rain = 0
KST2 110804Z 14007KT 26/22 A2996 RMK A01 T02610216  RH  076%=      5-min Rain = 0
KST2 110805Z 13007KT 26/22 A2996 RMK A01 T02610216  RH  076%=      5-min Rain = 0
KST2 110806Z 14007KT 26/22 A2996 RMK A01 T02610216  RH  076%=      5-min Rain = 0
KST2 110807Z 14007KT 26/22 A2996 RMK A01 T02610216  RH  076%=      5-min Rain = 0
KST2 110808Z 14007KT 26/22 A2996 RMK A01 T02600215  RH  076%=      5-min Rain = 0
KST2 110809Z 14007KT 26/22 A2996 RMK A01 T02600215  RH  076%=      5-min Rain = 0
KST2 110810Z 14006KT 26/22 A2996 RMK A01 T02610215  RH  076%=      5-min Rain = 0
KST2 110811Z 14006KT 26/22 A2996 RMK A01 T02610215  RH  076%=      5-min Rain = 0
KST2 110812Z 13006KT 26/22 A2996 RMK A01 T02610215  RH  076%=      5-min Rain = 0
KST2 110813Z 13006KT 26/22 A2996 RMK A01 T02610215  RH  076%=      5-min Rain = 0
KST2 110814Z 13006KT 26/22 A2996 RMK A01 T02610215  RH  076%=      5-min Rain = 0
KST2 110815Z 13006KT 26/22 A2996 RMK A01 T02610215  RH  076%=      5-min Rain = 0
KST2 110816Z 12006KT 26/22 A2997 RMK A01 T02610216  RH  076%=      5-min Rain = 0
KST2 110817Z 13006KT 26/22 A2997 RMK A01 T02610216  RH  076%=      5-min Rain = 0
KST2 110818Z 12006KT 26/22 A2997 RMK A01 T02610216  RH  076%=      5-min Rain = 0
KST2 110819Z 12006KT 26/22 A2997 RMK A01 T02610215  RH  076%=      5-min Rain = 0
KST2 110820Z 12006KT 26/22 A2997 RMK A01 T02600215  RH  076%=      5-min Rain = 0
KST2 110821Z 12006KT 26/22 A2997 RMK A01 T02600215  RH  076%=      5-min Rain = 0
KST2 110822Z 12006KT 26/22 A2997 RMK A01 T02600215  RH  076%=      5-min Rain = 0
KST2 110823Z 12006KT 26/22 A2997 RMK A01 T02600215  RH  076%=      5-min Rain = 0
KST2 110824Z 12006KT 26/22 A2997 RMK A01 T02600215  RH  076%=      5-min Rain = 0
KST2 110825Z 12006KT 26/22 A2997 RMK A01 T02600215  RH  076%=      5-min Rain = 0
KST2 110826Z 12006KT 26/22 A2997 RMK A01 T02600215  RH  076%=      5-min Rain = 0
KST2 110827Z 12006KT 26/22 A2997 RMK A01 T02600215  RH  076%=      5-min Rain = 0
KST2 110828Z 12006KT 26/22 A2997 RMK A01 T02600215  RH  076%=      5-min Rain = 0
KST2 110829Z 12005KT 26/22 A2997 RMK A01 T02600215  RH  076%=      5-min Rain = 0
KST2 110830Z 12005KT 26/22 A2997 RMK A01 T02590215  RH  076%=      5-min Rain = 0
KST2 110831Z 12005KT 26/22 A2997 RMK A01 T02590215  RH  077%=      5-min Rain = 0
KST2 110832Z 12005KT 26/22 A2997 RMK A01 T02590215  RH  077%=      5-min Rain = 0
KST2 110833Z 12005KT 26/22 A2997 RMK A01 T02590215  RH  077%=      5-min Rain = 0
KST2 110834Z 12006KT 26/22 A2997 RMK A01 T02590215  RH  077%=      5-min Rain = 0
KST2 110835Z 12006KT 26/22 A2997 RMK A01 T02590215  RH  077%=      5-min Rain = 0
KST2 110836Z 12006KT 26/22 A2997 RMK A01 T02580215  RH  077%=      5-min Rain = 0
KST2 110837Z 12006KT 26/22 A2997 RMK A01 T02580215  RH  077%=      5-min Rain = 0
KST2 110838Z 12006KT 26/22 A2997 RMK A01 T02580215  RH  077%=      5-min Rain = 0
KST2 110839Z 12006KT 26/22 A2997 RMK A01 T02580215  RH  077%=      5-min Rain = 0
KST2 110840Z 12006KT 26/22 A2997 RMK A01 T02570215  RH  077%=      5-min Rain = 0
KST2 110841Z 12006KT 26/22 A2997 RMK A01 T02570215  RH  077%=      5-min Rain = 0
KST2 110842Z 13006KT 26/22 A2997 RMK A01 T02570215  RH  078%=      5-min Rain = 0
KST2 110843Z 13006KT 26/22 A2997 RMK A01 T02570215  RH  078%=      5-min Rain = 0
KST2 110844Z 13007KT 26/22 A2997 RMK A01 T02560215  RH  078%=      5-min Rain = 0
KST2 110845Z 13007KT 26/22 A2997 RMK A01 T02560215  RH  078%=      5-min Rain = 0
KST2 110846Z 13006KT 26/22 A2997 RMK A01 T02560215  RH  078%=      5-min Rain = 0
KST2 110847Z 13006KT 26/22 A2997 RMK A01 T02560215  RH  078%=      5-min Rain = 0
KST2 110848Z 13007KT 26/22 A2997 RMK A01 T02560215  RH  078%=      5-min Rain = 0
KST2 110849Z 13006KT 26/22 A2997 RMK A01 T02560215  RH  078%=      5-min Rain = 0
KST2 110850Z 13006KT 26/22 A2997 RMK A01 T02560215  RH  078%=      5-min Rain = 0
KST2 110851Z 13006KT 26/22 A2997 RMK A01 T02560215  RH  078%=      5-min Rain = 0
KST2 110852Z 12007KT 26/22 A2997 RMK A01 T02560215  RH  078%=      5-min Rain = 0
KST2 110853Z 12006KT 26/22 A2997 RMK A01 T02560215  RH  078%=      5-min Rain = 0
KST2 110854Z 12006KT 26/22 A2998 RMK A01 T02550215  RH  078%=      5-min Rain = 0
KST2 110855Z 12006KT 26/22 A2998 RMK A01 T02550215  RH  078%=      5-min Rain = 0
KST2 110856Z 12006KT 26/22 A2998 RMK A01 T02550215  RH  078%=      5-min Rain = 0
KST2 110857Z 12006KT 26/22 A2998 RMK A01 T02550215  RH  079%=      5-min Rain = 0
KST2 110858Z 12006KT 26/22 A2998 RMK A01 T02550215  RH  079%=      5-min Rain = 0
KST2 110859Z 13006KT 25/22 A2998 RMK A01 T02540215  RH  079%=      5-min Rain = 0
KST2 110900Z 13006KT 25/22 A2998 RMK A01 T02540215  RH  079%=      5-min Rain = 0
KST2 110901Z 13006KT 25/22 A2998 RMK A01 T02540215  RH  079%=      5-min Rain = 0
KST2 110902Z 13006KT 25/22 A2998 RMK A01 T02540215  RH  079%=      5-min Rain = 0
KST2 110903Z 13006KT 25/22 A2998 RMK A01 T02540215  RH  079%=      5-min Rain = 0
KST2 110904Z 14006KT 25/22 A2998 RMK A01 T02540215  RH  079%=      5-min Rain = 0
KST2 110905Z 14007KT 25/22 A2998 RMK A01 T02540215  RH  079%=      5-min Rain = 0
KST2 110906Z 14008KT 25/21 A2998 RMK A01 T02530214  RH  079%=      5-min Rain = 0
KST2 110907Z 14007KT 25/22 A2998 RMK A01 T02530215  RH  079%=      5-min Rain = 0
KST2 110908Z 14007KT 25/22 A2998 RMK A01 T02530215  RH  079%=      5-min Rain = 0
KST2 110909Z 14007KT 25/22 A2998 RMK A01 T02530215  RH  079%=      5-min Rain = 0
KST2 110910Z 14007KT 25/21 A2998 RMK A01 T02530214  RH  079%=      5-min Rain = 0
KST2 110911Z 14007KT 25/21 A2998 RMK A01 T02530214  RH  079%=      5-min Rain = 0
KST2 110912Z 14006KT 25/22 A2998 RMK A01 T02530215  RH  079%=      5-min Rain = 0
KST2 110913Z 14006KT 25/21 A2998 RMK A01 T02520214  RH  079%=      5-min Rain = 0
KST2 110914Z 13007KT 25/21 A2998 RMK A01 T02520214  RH  079%=      5-min Rain = 0
KST2 110915Z 13007KT 25/21 A2998 RMK A01 T02520214  RH  080%=      5-min Rain = 0
KST2 110916Z 14007KT 25/21 A2998 RMK A01 T02520214  RH  080%=      5-min Rain = 0
KST2 110917Z 14007KT 25/21 A2998 RMK A01 T02520214  RH  080%=      5-min Rain = 0
KST2 110918Z 14007KT 25/21 A2998 RMK A01 T02520214  RH  080%=      5-min Rain = 0
KST2 110919Z 14007KT 25/21 A2998 RMK A01 T02510214  RH  080%=      5-min Rain = 0
KST2 110920Z 14007KT 25/21 A2998 RMK A01 T02510214  RH  080%=      5-min Rain = 0
KST2 110921Z 14007KT 25/21 A2998 RMK A01 T02510214  RH  080%=      5-min Rain = 0
KST2 110922Z 14008KT 25/21 A2997 RMK A01 T02510214  RH  080%=      5-min Rain = 0
KST2 110923Z 14008KT 25/21 A2997 RMK A01 T02500213  RH  080%=      5-min Rain = 0
KST2 110924Z 15008KT 25/21 A2997 RMK A01 T02500213  RH  080%=      5-min Rain = 0
KST2 110925Z 15008KT 25/21 A2997 RMK A01 T02500213  RH  080%=      5-min Rain = 0
KST2 110926Z 15009KT 25/21 A2997 RMK A01 T02500213  RH  080%=      5-min Rain = 0
KST2 110927Z 15008KT 25/21 A2997 RMK A01 T02500213  RH  080%=      5-min Rain = 0
KST2 110928Z 15009KT 25/21 A2997 RMK A01 T02500213  RH  080%=      5-min Rain = 0
KST2 110929Z 15008KT 25/21 A2997 RMK A01 T02500212  RH  079%=      5-min Rain = 0
KST2 110930Z 15008KT 25/21 A2997 RMK A01 T02500212  RH  079%=      5-min Rain = 0
KST2 110931Z 15008KT 25/21 A2997 RMK A01 T02500213  RH  080%=      5-min Rain = 0
KST2 110932Z 15008KT 25/21 A2997 RMK A01 T02500213  RH  080%=      5-min Rain = 0
KST2 110933Z 16008KT 25/21 A2997 RMK A01 T02510213  RH  079%=      5-min Rain = 0
KST2 110934Z 16008KT 25/21 A2997 RMK A01 T02500212  RH  079%=      5-min Rain = 0
KST2 110935Z 16007KT 25/21 A2997 RMK A01 T02510212  RH  079%=      5-min Rain = 0
KST2 110936Z 16008KT 25/21 A2997 RMK A01 T02520212  RH  078%=      5-min Rain = 0
KST2 110937Z 16008KT 25/21 A2997 RMK A01 T02530212  RH  078%=      5-min Rain = 0
KST2 110938Z 16008KT 25/21 A2997 RMK A01 T02530212  RH  078%=      5-min Rain = 0
KST2 110939Z 16009KT 25/21 A2997 RMK A01 T02540212  RH  077%=      5-min Rain = 0
KST2 110940Z 16010KT 26/21 A2997 RMK A01 T02550211  RH  077%=      5-min Rain = 0
KST2 110941Z 16011KT 26/21 A2996 RMK A01 T02560211  RH  077%=      5-min Rain = 0
KST2 110942Z 16010KT 26/21 A2996 RMK A01 T02560211  RH  076%=      5-min Rain = 0
KST2 110943Z 17010KT 26/21 A2996 RMK A01 T02560211  RH  076%=      5-min Rain = 0
KST2 110944Z 17011KT 26/21 A2996 RMK A01 T02560211  RH  076%=      5-min Rain = 0
KST2 110945Z 17011KT 26/21 A2996 RMK A01 T02570211  RH  076%=      5-min Rain = 0
KST2 110946Z 16011KT 26/21 A2996 RMK A01 T02570210  RH  075%=      5-min Rain = 0
KST2 110947Z 17010KT 26/21 A2996 RMK A01 T02580210  RH  075%=      5-min Rain = 0
KST2 110948Z 17011KT 26/21 A2997 RMK A01 T02580210  RH  075%=      5-min Rain = 0
KST2 110949Z 17010KT 26/21 A2997 RMK A01 T02580210  RH  074%=      5-min Rain = 0
KST2 110950Z 17011KT 26/21 A2997 RMK A01 T02590209  RH  074%=      5-min Rain = 0
KST2 110951Z 17010KT 26/21 A2997 RMK A01 T02600209  RH  074%=      5-min Rain = 0
KST2 110952Z 17012KT 26/21 A2997 RMK A01 T02610209  RH  073%=      5-min Rain = 0
KST2 110953Z 17013KT 26/21 A2997 RMK A01 T02620209  RH  073%=      5-min Rain = 0
KST2 110954Z 17013KT 26/21 A2997 RMK A01 T02620209  RH  072%=      5-min Rain = 0
KST2 110955Z 18012KT 26/21 A2997 RMK A01 T02630209  RH  072%=      5-min Rain = 0
KST2 110956Z 17012KT 26/21 A2997 RMK A01 T02630209  RH  072%=      5-min Rain = 0
KST2 110957Z 17011KT 26/21 A2997 RMK A01 T02630209  RH  072%=      5-min Rain = 0
KST2 110958Z 18012KT 26/21 A2997 RMK A01 T02630209  RH  072%=      5-min Rain = 0
KST2 110959Z 17011KT 26/21 A2997 RMK A01 T02630208  RH  072%=      5-min Rain = 0
KST2 111000Z 17012KT 26/21 A2997 RMK A01 T02630208  RH  072%=      5-min Rain = 0
KST2 111001Z 17010KT 26/21 A2997 RMK A01 T02630208  RH  071%=      5-min Rain = 0
KST2 111002Z 17010KT 26/21 A2997 RMK A01 T02640208  RH  071%=      5-min Rain = 0
KST2 111003Z 17011KT 26/21 A2997 RMK A01 T02630208  RH  072%=      5-min Rain = 0
KST2 111004Z 17011KT 26/21 A2997 RMK A01 T02630208  RH  071%=      5-min Rain = 0
KST2 111005Z 17011KT 26/21 A2997 RMK A01 T02640207  RH  071%=      5-min Rain = 0
KST2 111006Z 17011KT 26/21 A2997 RMK A01 T02640207  RH  071%=      5-min Rain = 0
KST2 111007Z 17011KT 26/21 A2997 RMK A01 T02640207  RH  071%=      5-min Rain = 0
KST2 111008Z 17009KT 26/21 A2997 RMK A01 T02640207  RH  071%=      5-min Rain = 0
KST2 111009Z 17010KT 26/21 A2997 RMK A01 T02640207  RH  071%=      5-min Rain = 0
KST2 111010Z 17010KT 26/21 A2997 RMK A01 T02640207  RH  071%=      5-min Rain = 0
KST2 111011Z 17009KT 26/21 A2997 RMK A01 T02640207  RH  071%=      5-min Rain = 0
KST2 111012Z 17009KT 26/21 A2997 RMK A01 T02640207  RH  071%=      5-min Rain = 0
KST2 111013Z 17010KT 26/21 A2997 RMK A01 T02640207  RH  071%=      5-min Rain = 0
KST2 111014Z 17009KT 26/21 A2997 RMK A01 T02640207  RH  071%=      5-min Rain = 0
KST2 111015Z 18009KT 26/21 A2998 RMK A01 T02640207  RH  071%=      5-min Rain = 0
KST2 111016Z 17010KT 26/21 A2998 RMK A01 T02640207  RH  071%=      5-min Rain = 0
KST2 111017Z 17009KT 26/21 A2998 RMK A01 T02640207  RH  071%=      5-min Rain = 0
KST2 111018Z 17009KT 26/21 A2998 RMK A01 T02640206  RH  071%=      5-min Rain = 0
KST2 111019Z 17009KT 26/21 A2998 RMK A01 T02640206  RH  071%=      5-min Rain = 0
KST2 111020Z 17009KT 26/21 A2998 RMK A01 T02630206  RH  071%=      5-min Rain = 0
KST2 111021Z 18010KT 26/21 A2998 RMK A01 T02630206  RH  071%=      5-min Rain = 0
KST2 111022Z 18008KT 26/21 A2998 RMK A01 T02630206  RH  071%=      5-min Rain = 0
KST2 111023Z 18009KT 26/21 A2998 RMK A01 T02620206  RH  071%=      5-min Rain = 0
KST2 111024Z 18009KT 26/21 A2998 RMK A01 T02620206  RH  071%=      5-min Rain = 0
KST2 111025Z 18010KT 26/21 A2998 RMK A01 T02620206  RH  071%=      5-min Rain = 0
KST2 111026Z 18009KT 26/21 A2998 RMK A01 T02620206  RH  071%=      5-min Rain = 0
KST2 111027Z 19008KT 26/21 A2998 RMK A01 T02620206  RH  071%=      5-min Rain = 0
KST2 111028Z 19009KT 26/21 A2998 RMK A01 T02620206  RH  071%=      5-min Rain = 0
KST2 111029Z 19008KT 26/21 A2998 RMK A01 T02620206  RH  071%=      5-min Rain = 0
KST2 111030Z 19009KT 26/21 A2998 RMK A01 T02620206  RH  071%=      5-min Rain = 0
KST2 111031Z 19009KT 26/21 A2998 RMK A01 T02630206  RH  071%=      5-min Rain = 0
KST2 111032Z 20009KT 26/21 A2998 RMK A01 T02620206  RH  071%=      5-min Rain = 0
KST2 111033Z 20009KT 26/21 A2998 RMK A01 T02620206  RH  071%=      5-min Rain = 0
KST2 111034Z 20007KT 26/21 A2998 RMK A01 T02620206  RH  071%=      5-min Rain = 0
KST2 111035Z 20007KT 26/21 A2998 RMK A01 T02620206  RH  071%=      5-min Rain = 0
KST2 111036Z 20007KT 26/21 A2998 RMK A01 T02610206  RH  072%=      5-min Rain = 0
KST2 111037Z 20006KT 26/21 A2999 RMK A01 T02610206  RH  072%=      5-min Rain = 0
KST2 111038Z 20006KT 26/21 A2999 RMK A01 T02600206  RH  072%=      5-min Rain = 0
KST2 111039Z 20007KT 26/21 A2999 RMK A01 T02590206  RH  072%=      5-min Rain = 0
KST2 111040Z 20007KT 26/21 A2999 RMK A01 T02590206  RH  073%=      5-min Rain = 0
KST2 111041Z 20007KT 26/21 A2999 RMK A01 T02580205  RH  073%=      5-min Rain = 0
KST2 111042Z 19008KT 26/21 A2999 RMK A01 T02580205  RH  073%=      5-min Rain = 0
KST2 111043Z 20008KT 26/21 A2999 RMK A01 T02580205  RH  072%=      5-min Rain = 0
KST2 111044Z 20008KT 26/21 A2999 RMK A01 T02590205  RH  072%=      5-min Rain = 0
KST2 111045Z 20007KT 26/21 A2999 RMK A01 T02590205  RH  072%=      5-min Rain = 0
KST2 111046Z 21006KT 26/21 A2999 RMK A01 T02590205  RH  072%=      5-min Rain = 0
KST2 111047Z 21006KT 26/21 A2999 RMK A01 T02590205  RH  072%=      5-min Rain = 0
KST2 111048Z 21007KT 26/21 A2999 RMK A01 T02580205  RH  072%=      5-min Rain = 0
KST2 111049Z 20006KT 26/21 A2999 RMK A01 T02580205  RH  072%=      5-min Rain = 0
KST2 111050Z 20006KT 26/21 A2999 RMK A01 T02580205  RH  072%=      5-min Rain = 0
KST2 111051Z 20006KT 26/21 A2999 RMK A01 T02580205  RH  073%=      5-min Rain = 0
KST2 111052Z 20005KT 26/21 A2999 RMK A01 T02570205  RH  073%=      5-min Rain = 0
KST2 111053Z 20006KT 26/21 A2999 RMK A01 T02570205  RH  073%=      5-min Rain = 0
KST2 111054Z 21005KT 26/20 A2999 RMK A01 T02570204  RH  073%=      5-min Rain = 0
KST2 111055Z 20006KT 26/20 A2999 RMK A01 T02570204  RH  073%=      5-min Rain = 0
KST2 111056Z 20006KT 26/20 A2999 RMK A01 T02570204  RH  073%=      5-min Rain = 0
KST2 111057Z 20006KT 26/20 A2999 RMK A01 T02570204  RH  073%=      5-min Rain = 0
KST2 111058Z 20006KT 26/20 A2999 RMK A01 T02560204  RH  073%=      5-min Rain = 0
KST2 111059Z 20006KT 26/20 A2999 RMK A01 T02560204  RH  073%=      5-min Rain = 0
KST2 111100Z 20006KT 26/20 A2999 RMK A01 T02560203  RH  073%=      5-min Rain = 0
KST2 111101Z 20007KT 26/20 A2999 RMK A01 T02560203  RH  073%=      5-min Rain = 0
KST2 111102Z 20007KT 26/20 A30 RMK A01 T02560203  RH  072%=      5-min Rain = 0
KST2 111103Z 21007KT 26/20 A30 RMK A01 T02560203  RH  072%=      5-min Rain = 0
KST2 111104Z 20007KT 26/20 A30 RMK A01 T02570203  RH  072%=      5-min Rain = 0
KST2 111105Z 21007KT 26/20 A30 RMK A01 T02580203  RH  072%=      5-min Rain = 0
KST2 111106Z 20007KT 26/20 A30 RMK A01 T02580202  RH  071%=      5-min Rain = 0
KST2 111107Z 21007KT 26/20 A30 RMK A01 T02580202  RH  071%=      5-min Rain = 0
KST2 111108Z 20007KT 26/20 A30 RMK A01 T02590202  RH  071%=      5-min Rain = 0
KST2 111109Z 20007KT 26/20 A30 RMK A01 T02590202  RH  070%=      5-min Rain = 0
KST2 111110Z 20007KT 26/20 A30 RMK A01 T02600202  RH  070%=      5-min Rain = 0
KST2 111111Z 21007KT 26/20 A30 RMK A01 T02610201  RH  070%=      5-min Rain = 0
KST2 111112Z 21007KT 26/20 A30 RMK A01 T02610201  RH  070%=      5-min Rain = 0
KST2 111113Z 21007KT 26/20 A30 RMK A01 T02620201  RH  069%=      5-min Rain = 0
KST2 111114Z 21006KT 26/20 A30 RMK A01 T02620201  RH  069%=      5-min Rain = 0
KST2 111115Z 21007KT 26/20 A30 RMK A01 T02620202  RH  069%=      5-min Rain = 0
KST2 111116Z 21007KT 26/20 A30 RMK A01 T02620202  RH  069%=      5-min Rain = 0
KST2 111117Z 21007KT 26/20 A30 RMK A01 T02620202  RH  070%=      5-min Rain = 0
KST2 111118Z 21007KT 26/20 A30 RMK A01 T02610202  RH  070%=      5-min Rain = 0
KST2 111119Z 21007KT 26/20 A30 RMK A01 T02620202  RH  070%=      5-min Rain = 0
KST2 111120Z 21007KT 26/20 A30 RMK A01 T02610202  RH  070%=      5-min Rain = 0
KST2 111121Z 21007KT 26/20 A30 RMK A01 T02610202  RH  070%=      5-min Rain = 0
KST2 111122Z 21007KT 26/20 A30 RMK A01 T02610202  RH  070%=      5-min Rain = 0
KST2 111123Z 21007KT 26/20 A30 RMK A01 T02610201  RH  070%=      5-min Rain = 0
KST2 111124Z 21007KT 26/20 A30 RMK A01 T02610202  RH  070%=      5-min Rain = 0
KST2 111125Z 21008KT 26/20 A30 RMK A01 T02610202  RH  070%=      5-min Rain = 0
KST2 111126Z 21007KT 26/20 A30 RMK A01 T02610202  RH  070%=      5-min Rain = 0
KST2 111127Z 20007KT 26/20 A30 RMK A01 T02610202  RH  070%=      5-min Rain = 0
KST2 111128Z 20007KT 26/20 A30 RMK A01 T02610202  RH  070%=      5-min Rain = 0
KST2 111129Z 20007KT 26/20 A30 RMK A01 T02610202  RH  070%=      5-min Rain = 0
KST2 111130Z 21006KT 26/20 A30 RMK A01 T02610202  RH  070%=      5-min Rain = 0
KST2 111131Z 20007KT 26/20 A30 RMK A01 T02610202  RH  070%=      5-min Rain = 0
KST2 111132Z 20006KT 26/20 A30 RMK A01 T02610202  RH  070%=      5-min Rain = 0
KST2 111133Z 20006KT 26/20 A30 RMK A01 T02610202  RH  070%=      5-min Rain = 0
KST2 111134Z 20006KT 26/20 A30 RMK A01 T02610202  RH  070%=      5-min Rain = 0
KST2 111135Z 20006KT 26/20 A30 RMK A01 T02620202  RH  070%=      5-min Rain = 0
KST2 111136Z 19007KT 26/20 A30 RMK A01 T02610202  RH  070%=      5-min Rain = 0
KST2 111137Z 19006KT 26/20 A3001 RMK A01 T02610202  RH  070%=      5-min Rain = 0
KST2 111138Z 19006KT 26/20 A3001 RMK A01 T02620202  RH  070%=      5-min Rain = 0
KST2 111139Z 19006KT 26/20 A3001 RMK A01 T02620203  RH  070%=      5-min Rain = 0
KST2 111140Z 19006KT 26/20 A3001 RMK A01 T02630203  RH  070%=      5-min Rain = 0
KST2 111141Z 19006KT 26/20 A3001 RMK A01 T02630203  RH  069%=      5-min Rain = 0
KST2 111142Z 19006KT 26/20 A3001 RMK A01 T02630203  RH  070%=      5-min Rain = 0
KST2 111143Z 19006KT 26/20 A3001 RMK A01 T02630203  RH  070%=      5-min Rain = 0
KST2 111144Z 19006KT 26/20 A3001 RMK A01 T02630203  RH  070%=      5-min Rain = 0
KST2 111145Z 19005KT 26/20 A3001 RMK A01 T02630203  RH  070%=      5-min Rain = 0
KST2 111146Z 19006KT 26/20 A3001 RMK A01 T02630204  RH  070%=      5-min Rain = 0
KST2 111147Z 18005KT 26/20 A3001 RMK A01 T02630204  RH  070%=      5-min Rain = 0
KST2 111148Z 19005KT 26/20 A3001 RMK A01 T02620203  RH  070%=      5-min Rain = 0
KST2 111149Z 19005KT 26/20 A3001 RMK A01 T02620203  RH  070%=      5-min Rain = 0
KST2 111150Z 19006KT 26/20 A3001 RMK A01 T02610203  RH  070%=      5-min Rain = 0
KST2 111151Z 19006KT 26/20 A3001 RMK A01 T02610203  RH  071%=      5-min Rain = 0
KST2 111152Z 20006KT 26/20 A3001 RMK A01 T02610203  RH  070%=      5-min Rain = 0
KST2 111153Z 20005KT 26/20 A3001 RMK A01 T02610203  RH  070%=      5-min Rain = 0
KST2 111154Z 20005KT 26/20 A3001 RMK A01 T02610203  RH  070%=      5-min Rain = 0
KST2 111155Z 21005KT 26/20 A3001 RMK A01 T02610203  RH  070%=      5-min Rain = 0
KST2 111156Z 20005KT 26/20 A3001 RMK A01 T02610204  RH  071%=      5-min Rain = 0
KST2 111157Z 20005KT 26/20 A3001 RMK A01 T02610204  RH  071%=      5-min Rain = 0
KST2 111158Z 21004KT 26/20 A3001 RMK A01 T02600204  RH  071%=      5-min Rain = 0
KST2 111159Z 20005KT 26/20 A3001 RMK A01 T02600204  RH  071%=      5-min Rain = 0
KST2 111200Z 20004KT 26/20 A3001 RMK A01 T02600204  RH  071%=      5-min Rain = 0
KST2 111201Z 21005KT 26/20 A3001 RMK A01 T02600204  RH  071%=      5-min Rain = 0
KST2 111202Z 21005KT 26/20 A3001 RMK A01 T02600204  RH  071%=      5-min Rain = 0
KST2 111203Z 21005KT 26/20 A3001 RMK A01 T02600204  RH  071%=      5-min Rain = 0
KST2 111204Z 21005KT 26/21 A3001 RMK A01 T02600205  RH  072%=      5-min Rain = 0
KST2 111205Z 21004KT 26/21 A3001 RMK A01 T02600205  RH  072%=      5-min Rain = 0
KST2 111206Z 21004KT 26/21 A3001 RMK A01 T02600205  RH  072%=      5-min Rain = 0
KST2 111207Z 21004KT 26/21 A3001 RMK A01 T02600205  RH  072%=      5-min Rain = 0
KST2 111208Z 21004KT 26/21 A3001 RMK A01 T02590205  RH  072%=      5-min Rain = 0
KST2 111209Z 21004KT 26/21 A3001 RMK A01 T02600206  RH  072%=      5-min Rain = 0
KST2 111210Z 20005KT 26/21 A3001 RMK A01 T02590206  RH  072%=      5-min Rain = 0
KST2 111211Z 20005KT 26/21 A3001 RMK A01 T02590206  RH  072%=      5-min Rain = 0
KST2 111212Z 20005KT 26/21 A3001 RMK A01 T02590205  RH  072%=      5-min Rain = 0
KST2 111213Z 19005KT 26/21 A3001 RMK A01 T02600206  RH  072%=      5-min Rain = 0
KST2 111214Z 19006KT 26/21 A3001 RMK A01 T02600206  RH  072%=      5-min Rain = 0
KST2 111215Z 19006KT 26/21 A3001 RMK A01 T02600206  RH  072%=      5-min Rain = 0
KST2 111216Z 19006KT 26/21 A3001 RMK A01 T02610206  RH  072%=      5-min Rain = 0
KST2 111217Z 19006KT 26/21 A3001 RMK A01 T02610206  RH  072%=      5-min Rain = 0
KST2 111218Z 19005KT 26/21 A3001 RMK A01 T02620206  RH  071%=      5-min Rain = 0
KST2 111219Z 20005KT 26/21 A3001 RMK A01 T02620206  RH  071%=      5-min Rain = 0
KST2 111220Z 20005KT 26/21 A3001 RMK A01 T02630207  RH  071%=      5-min Rain = 0
KST2 111221Z 19005KT 26/21 A3001 RMK A01 T02630206  RH  071%=      5-min Rain = 0
KST2 111222Z 19006KT 26/21 A3001 RMK A01 T02640206  RH  071%=      5-min Rain = 0
KST2 111223Z 19005KT 26/21 A3002 RMK A01 T02640207  RH  071%=      5-min Rain = 0
KST2 111224Z 18006KT 26/21 A3002 RMK A01 T02640207  RH  071%=      5-min Rain = 0
KST2 111225Z 18006KT 27/21 A3002 RMK A01 T02650207  RH  071%=      5-min Rain = 0
KST2 111226Z 18006KT 27/21 A3002 RMK A01 T02650207  RH  071%=      5-min Rain = 0
KST2 111227Z 18006KT 27/21 A3002 RMK A01 T02650207  RH  071%=      5-min Rain = 0
KST2 111228Z 18006KT 27/21 A3002 RMK A01 T02650207  RH  071%=      5-min Rain = 0
KST2 111229Z 18006KT 27/21 A3002 RMK A01 T02650207  RH  071%=      5-min Rain = 0
KST2 111230Z 18006KT 27/21 A3002 RMK A01 T02650207  RH  070%=      5-min Rain = 0
KST2 111231Z 18006KT 27/21 A3002 RMK A01 T02660207  RH  070%=      5-min Rain = 0
KST2 111232Z 18006KT 27/21 A3002 RMK A01 T02660207  RH  070%=      5-min Rain = 0
KST2 111233Z 18006KT 27/21 A3003 RMK A01 T02670207  RH  070%=      5-min Rain = 0
KST2 111234Z 18006KT 27/21 A3003 RMK A01 T02670208  RH  070%=      5-min Rain = 0
KST2 111235Z 18006KT 27/21 A3003 RMK A01 T02680208  RH  070%=      5-min Rain = 0
KST2 111236Z 18006KT 27/21 A3003 RMK A01 T02680208  RH  069%=      5-min Rain = 0
KST2 111237Z 18006KT 27/21 A3003 RMK A01 T02690208  RH  070%=      5-min Rain = 0
KST2 111238Z 18007KT 27/21 A3003 RMK A01 T02690209  RH  069%=      5-min Rain = 0
KST2 111239Z 19008KT 27/21 A3003 RMK A01 T02700208  RH  069%=      5-min Rain = 0
KST2 111240Z 18008KT 27/21 A3003 RMK A01 T02700208  RH  069%=      5-min Rain = 0
KST2 111241Z 19008KT 27/21 A3003 RMK A01 T02710208  RH  068%=      5-min Rain = 0
KST2 111242Z 18007KT 27/21 A3003 RMK A01 T02710208  RH  068%=      5-min Rain = 0
KST2 111243Z 18008KT 27/21 A3003 RMK A01 T02710209  RH  069%=      5-min Rain = 0
KST2 111244Z 18007KT 27/21 A3003 RMK A01 T02720209  RH  068%=      5-min Rain = 0
KST2 111245Z 18008KT 27/21 A3003 RMK A01 T02720209  RH  068%=      5-min Rain = 0
KST2 111246Z 18006KT 27/21 A3003 RMK A01 T02730210  RH  069%=      5-min Rain = 0
KST2 111247Z 18008KT 27/21 A3003 RMK A01 T02730210  RH  068%=      5-min Rain = 0
KST2 111248Z 18008KT 27/21 A3003 RMK A01 T02740209  RH  068%=      5-min Rain = 0
KST2 111249Z 18007KT 27/21 A3003 RMK A01 T02730210  RH  068%=      5-min Rain = 0
KST2 111250Z 18007KT 27/21 A3003 RMK A01 T02740210  RH  068%=      5-min Rain = 0
KST2 111251Z 19008KT 27/21 A3003 RMK A01 T02730210  RH  068%=      5-min Rain = 0
KST2 111252Z 19008KT 27/21 A3003 RMK A01 T02740210  RH  068%=      5-min Rain = 0
KST2 111253Z 19007KT 27/21 A3003 RMK A01 T02740210  RH  068%=      5-min Rain = 0
KST2 111254Z 19006KT 28/21 A3003 RMK A01 T02750211  RH  068%=      5-min Rain = 0
KST2 111255Z 19007KT 28/21 A3003 RMK A01 T02750211  RH  068%=      5-min Rain = 0
KST2 111256Z 19008KT 28/21 A3003 RMK A01 T02760210  RH  068%=      5-min Rain = 0
KST2 111257Z 19009KT 28/21 A3003 RMK A01 T02760210  RH  067%=      5-min Rain = 0
KST2 111258Z 19007KT 28/21 A3003 RMK A01 T02760211  RH  068%=      5-min Rain = 0
KST2 111259Z 18006KT 28/21 A3003 RMK A01 T02770212  RH  068%=      5-min Rain = 0
KST2 111300Z 19007KT 28/21 A3003 RMK A01 T02770211  RH  067%=      5-min Rain = 0
KST2 111301Z 19007KT 28/21 A3004 RMK A01 T02770212  RH  067%=      5-min Rain = 0
KST2 111302Z 19007KT 28/21 A3004 RMK A01 T02780212  RH  067%=      5-min Rain = 0
KST2 111303Z 18009KT 28/21 A3004 RMK A01 T02780212  RH  067%=      5-min Rain = 0
KST2 111304Z 19009KT 28/21 A3004 RMK A01 T02780211  RH  067%=      5-min Rain = 0
KST2 111305Z 19008KT 28/21 A3004 RMK A01 T02780212  RH  067%=      5-min Rain = 0
KST2 111306Z 19007KT 28/21 A3004 RMK A01 T02790212  RH  067%=      5-min Rain = 0
KST2 111307Z 19008KT 28/21 A3004 RMK A01 T02800213  RH  067%=      5-min Rain = 0
KST2 111308Z 18007KT 28/21 A3004 RMK A01 T02800213  RH  067%=      5-min Rain = 0
KST2 111309Z 19006KT 28/21 A3004 RMK A01 T02810214  RH  067%=      5-min Rain = 0
KST2 111310Z 19007KT 28/21 A3004 RMK A01 T02810213  RH  067%=      5-min Rain = 0
KST2 111311Z 19009KT 28/21 A3004 RMK A01 T02820214  RH  067%=      5-min Rain = 0
KST2 111312Z 19008KT 28/21 A3004 RMK A01 T02820214  RH  067%=      5-min Rain = 0
KST2 111313Z 19008KT 28/21 A3004 RMK A01 T02820214  RH  067%=      5-min Rain = 0
KST2 111314Z 19009KT 28/21 A3004 RMK A01 T02830214  RH  066%=      5-min Rain = 0
KST2 111315Z 19008KT 28/21 A3004 RMK A01 T02830214  RH  066%=      5-min Rain = 0
KST2 111316Z 19008KT 28/22 A3004 RMK A01 T02830215  RH  066%=      5-min Rain = 0
KST2 111317Z 19009KT 28/22 A3004 RMK A01 T02840215  RH  066%=      5-min Rain = 0
KST2 111318Z 20009KT 28/22 A3004 RMK A01 T02840215  RH  066%=      5-min Rain = 0
KST2 111319Z 20011KT 29/22 A3003 RMK A01 T02850215  RH  066%=      5-min Rain = 0
KST2 111320Z 20009KT 29/22 A3003 RMK A01 T02850216  RH  066%=      5-min Rain = 0
KST2 111321Z 20008KT 29/22 A3003 RMK A01 T02860217  RH  066%=      5-min Rain = 0
KST2 111322Z 20008KT 29/22 A3003 RMK A01 T02870217  RH  066%=      5-min Rain = 0
KST2 111323Z 20012KT 29/22 A3003 RMK A01 T02880217  RH  065%=      5-min Rain = 0
KST2 111324Z 20010KT 29/22 A3003 RMK A01 T02880217  RH  065%=      5-min Rain = 0
KST2 111325Z 20009KT 29/22 A3003 RMK A01 T02880218  RH  066%=      5-min Rain = 0
KST2 111326Z 20009KT 29/22 A3003 RMK A01 T02890218  RH  065%=      5-min Rain = 0
KST2 111327Z 20010KT 29/22 A3003 RMK A01 T02900217  RH  065%=      5-min Rain = 0
KST2 111328Z 20009KT 29/22 A3003 RMK A01 T02900218  RH  065%=      5-min Rain = 0
KST2 111329Z 20010KT 29/22 A3003 RMK A01 T02900218  RH  065%=      5-min Rain = 0
KST2 111330Z 21010KT 29/22 A3003 RMK A01 T02900218  RH  065%=      5-min Rain = 0
KST2 111331Z 20010KT 29/22 A3004 RMK A01 T02910219  RH  065%=      5-min Rain = 0
KST2 111332Z 20011KT 29/22 A3004 RMK A01 T02910218  RH  065%=      5-min Rain = 0
KST2 111333Z 21009KT 29/22 A3004 RMK A01 T02910218  RH  065%=      5-min Rain = 0
KST2 111334Z 20009KT 29/22 A3004 RMK A01 T02920220  RH  065%=      5-min Rain = 0
KST2 111335Z 20010KT 29/22 A3004 RMK A01 T02920219  RH  065%=      5-min Rain = 0
KST2 111336Z 21008KT 29/22 A3004 RMK A01 T02930220  RH  065%=      5-min Rain = 0
KST2 111337Z 21010KT 29/22 A3004 RMK A01 T02930221  RH  065%=      5-min Rain = 0
KST2 111338Z 20010KT 29/22 A3004 RMK A01 T02940221  RH  065%=      5-min Rain = 0
KST2 111339Z 21010KT 30/22 A3004 RMK A01 T02950220  RH  064%=      5-min Rain = 0
KST2 111340Z 20011KT 30/22 A3004 RMK A01 T02950221  RH  064%=      5-min Rain = 0
KST2 111341Z 20010KT 30/22 A3004 RMK A01 T02960222  RH  065%=      5-min Rain = 0
KST2 111342Z 21011KT 30/22 A3004 RMK A01 T02970221  RH  064%=      5-min Rain = 0
KST2 111343Z 20010KT 30/22 A3004 RMK A01 T02970223  RH  064%=      5-min Rain = 0
KST2 111344Z 20011KT 30/22 A3004 RMK A01 T02970222  RH  064%=      5-min Rain = 0
KST2 111345Z 20011KT 30/22 A3004 RMK A01 T02970222  RH  064%=      5-min Rain = 0
KST2 111346Z 20010KT 30/22 A3004 RMK A01 T02970222  RH  064%=      5-min Rain = 0
KST2 111347Z 20010KT 30/22 A3004 RMK A01 T02980222  RH  064%=      5-min Rain = 0
KST2 111348Z 20010KT 30/22 A3004 RMK A01 T02980222  RH  064%=      5-min Rain = 0
KST2 111349Z 21008KT 30/22 A3004 RMK A01 T02990223  RH  064%=      5-min Rain = 0
KST2 111350Z 20011KT 30/22 A3004 RMK A01 T02990223  RH  064%=      5-min Rain = 0
KST2 111351Z 21009KT 30/22 A3004 RMK A01 T03010223  RH  063%=      5-min Rain = 0
KST2 111352Z 21009KT 30/22 A3004 RMK A01 T03000223  RH  063%=      5-min Rain = 0
KST2 111353Z 20011KT 30/22 A3004 RMK A01 T03010223  RH  063%=      5-min Rain = 0
KST2 111354Z 20009KT 30/22 A3004 RMK A01 T03010223  RH  063%=      5-min Rain = 0
KST2 111355Z 21010KT 30/22 A3004 RMK A01 T03020224  RH  063%=      5-min Rain = 0
KST2 111356Z 21009KT 30/22 A3004 RMK A01 T03020224  RH  063%=      5-min Rain = 0
KST2 111357Z 20009KT 30/22 A3004 RMK A01 T03030224  RH  063%=      5-min Rain = 0
KST2 111358Z 20010KT 30/22 A3004 RMK A01 T03030224  RH  063%=      5-min Rain = 0
KST2 111359Z 22011KT 30/22 A3004 RMK A01 T03030224  RH  063%=      5-min Rain = 0
KST2 111400Z 21010KT 30/23 A3004 RMK A01 T03040225  RH  063%=      5-min Rain = 0
KST2 111401Z 20010KT 31/23 A3004 RMK A01 T03050225  RH  062%=      5-min Rain = 0
KST2 111402Z 22010KT 31/22 A3004 RMK A01 T03050224  RH  062%=      5-min Rain = 0
KST2 111403Z 22011KT 31/22 A3004 RMK A01 T03050223  RH  061%=      5-min Rain = 0
KST2 111404Z 22010KT 31/22 A3004 RMK A01 T03060224  RH  061%=      5-min Rain = 0
KST2 111405Z 22010KT 31/23 A3004 RMK A01 T03060225  RH  062%=      5-min Rain = 0
KST2 111406Z 22010KT 31/23 A3005 RMK A01 T03070225  RH  062%=      5-min Rain = 0
KST2 111407Z 20010KT 31/23 A3005 RMK A01 T03080226  RH  062%=      5-min Rain = 0
KST2 111408Z 21009KT 31/23 A3005 RMK A01 T03090225  RH  061%=      5-min Rain = 0
KST2 111409Z 21011KT 31/23 A3005 RMK A01 T03080226  RH  061%=      5-min Rain = 0
KST2 111410Z 22010KT 31/23 A3005 RMK A01 T03090225  RH  061%=      5-min Rain = 0
KST2 111411Z 22008KT 31/23 A3005 RMK A01 T03090226  RH  061%=      5-min Rain = 0
KST2 111412Z 22007KT 31/23 A3005 RMK A01 T03120228  RH  061%=      5-min Rain = 0
KST2 111413Z 22010KT 32/23 A3005 RMK A01 T03150227  RH  060%=      5-min Rain = 0
KST2 111414Z 22012KT 32/23 A3005 RMK A01 T03150226  RH  059%=      5-min Rain = 0
KST2 111415Z 21009KT 31/23 A3005 RMK A01 T03130228  RH  060%=      5-min Rain = 0
KST2 111416Z 21012KT 31/23 A3005 RMK A01 T03140226  RH  060%=      5-min Rain = 0
KST2 111417Z 22011KT 31/23 A3005 RMK A01 T03130226  RH  060%=      5-min Rain = 0
KST2 111418Z 22011KT 31/23 A3005 RMK A01 T03130225  RH  060%=      5-min Rain = 0
KST2 111419Z 21010KT 31/23 A3005 RMK A01 T03130226  RH  060%=      5-min Rain = 0
KST2 111420Z 21011KT 31/23 A3005 RMK A01 T03140225  RH  059%=      5-min Rain = 0
KST2 111421Z 21012KT 31/23 A3005 RMK A01 T03140225  RH  059%=      5-min Rain = 0
KST2 111422Z 21011KT 31/23 A3005 RMK A01 T03140225  RH  059%=      5-min Rain = 0
KST2 111423Z 22011KT 31/23 A3005 RMK A01 T03130225  RH  060%=      5-min Rain = 0
KST2 111424Z 21011KT 31/23 A3005 RMK A01 T03140225  RH  059%=      5-min Rain = 0
KST2 111425Z 23010KT 31/22 A3005 RMK A01 T03140224  RH  059%=      5-min Rain = 0
KST2 111426Z 22010KT 32/23 A3005 RMK A01 T03150225  RH  059%=      5-min Rain = 0
KST2 111427Z 23010KT 32/23 A3005 RMK A01 T03150225  RH  059%=      5-min Rain = 0
KST2 111428Z 22010KT 32/23 A3005 RMK A01 T03150225  RH  059%=      5-min Rain = 0
KST2 111429Z 23009KT 32/23 A3005 RMK A01 T03160227  RH  059%=      5-min Rain = 0
KST2 111430Z 22010KT 32/23 A3005 RMK A01 T03170226  RH  059%=      5-min Rain = 0
KST2 111431Z 22010KT 32/23 A3005 RMK A01 T03170226  RH  058%=      5-min Rain = 0
KST2 111432Z 21012KT 32/22 A3005 RMK A01 T03170224  RH  058%=      5-min Rain = 0
KST2 111433Z 22010KT 32/22 A3005 RMK A01 T03170224  RH  058%=      5-min Rain = 0
KST2 111434Z 21007KT 32/22 A3005 RMK A01 T03160224  RH  058%=      5-min Rain = 0
KST2 111435Z 21008KT 32/23 A3005 RMK A01 T03160226  RH  059%=      5-min Rain = 0
KST2 111436Z 22009KT 32/23 A3005 RMK A01 T03190228  RH  058%=      5-min Rain = 0
KST2 111437Z 22009KT 32/23 A3005 RMK A01 T03210227  RH  058%=      5-min Rain = 0
KST2 111438Z 22011KT 32/23 A3005 RMK A01 T03210227  RH  057%=      5-min Rain = 0
KST2 111439Z 21010KT 32/23 A3005 RMK A01 T03210226  RH  057%=      5-min Rain = 0
KST2 111440Z 21011KT 32/23 A3005 RMK A01 T03200226  RH  058%=      5-min Rain = 0
KST2 111441Z 22010KT 32/23 A3005 RMK A01 T03190226  RH  058%=      5-min Rain = 0
KST2 111442Z 21010KT 32/23 A3005 RMK A01 T03190227  RH  058%=      5-min Rain = 0
KST2 111443Z 20010KT 32/23 A3005 RMK A01 T03190226  RH  058%=      5-min Rain = 0
KST2 111444Z 20009KT 32/23 A3005 RMK A01 T03180227  RH  059%=      5-min Rain = 0
KST2 111445Z 21009KT 32/23 A3005 RMK A01 T03190227  RH  058%=      5-min Rain = 0
KST2 111446Z 21010KT 32/23 A3005 RMK A01 T03210229  RH  058%=      5-min Rain = 0
KST2 111447Z 21008KT 32/23 A3005 RMK A01 T03220227  RH  057%=      5-min Rain = 0
KST2 111448Z 21007KT 32/23 A3005 RMK A01 T03230228  RH  058%=      5-min Rain = 0
KST2 111449Z 22010KT 33/23 A3005 RMK A01 T03250228  RH  057%=      5-min Rain = 0
KST2 111450Z 21011KT 33/23 A3005 RMK A01 T03260227  RH  056%=      5-min Rain = 0
KST2 111451Z 21009KT 33/23 A3005 RMK A01 T03260226  RH  056%=      5-min Rain = 0
KST2 111452Z 23008KT 33/23 A3005 RMK A01 T03260227  RH  056%=      5-min Rain = 0
KST2 111453Z 21009KT 33/23 A3005 RMK A01 T03260227  RH  056%=      5-min Rain = 0
KST2 111454Z 21010KT 33/23 A3005 RMK A01 T03270229  RH  056%=      5-min Rain = 0
KST2 111455Z 22011KT 33/23 A3005 RMK A01 T03280227  RH  055%=      5-min Rain = 0
KST2 111456Z 22009KT 33/23 A3005 RMK A01 T03280226  RH  055%=      5-min Rain = 0
KST2 111457Z 22007KT 33/23 A3005 RMK A01 T03270228  RH  056%=      5-min Rain = 0
KST2 111458Z 21007G15KT 33/23 A3005 RMK A01 T03280230  RH  056%=      5-min Rain = 0
KST2 111459Z 20011KT 33/23 A3005 RMK A01 T03300226  RH  055%=      5-min Rain = 0
KST2 111500Z 21010KT 33/23 A3004 RMK A01 T03290225  RH  055%=      5-min Rain = 0
KST2 111501Z 22009KT 33/23 A3004 RMK A01 T03270228  RH  056%=      5-min Rain = 0
KST2 111502Z 22012KT 33/23 A3004 RMK A01 T03290227  RH  055%=      5-min Rain = 0
KST2 111503Z 22009KT 33/23 A3004 RMK A01 T03300228  RH  055%=      5-min Rain = 0
KST2 111504Z 22009KT 33/23 A3004 RMK A01 T03310226  RH  054%=      5-min Rain = 0
KST2 111505Z 22009KT 33/23 A3004 RMK A01 T03300226  RH  054%=      5-min Rain = 0
KST2 111506Z 21009KT 33/23 A3004 RMK A01 T03300226  RH  055%=      5-min Rain = 0
KST2 111507Z 20011KT 33/23 A3004 RMK A01 T03300228  RH  055%=      5-min Rain = 0
KST2 111508Z 22012KT 33/23 A3004 RMK A01 T03300227  RH  055%=      5-min Rain = 0
KST2 111509Z 21012KT 33/23 A3004 RMK A01 T03300226  RH  054%=      5-min Rain = 0
KST2 111510Z 22010KT 33/23 A3004 RMK A01 T03300227  RH  055%=      5-min Rain = 0
KST2 111511Z 22007KT 33/23 A3004 RMK A01 T03300227  RH  055%=      5-min Rain = 0
KST2 111512Z 21006KT 33/23 A3004 RMK A01 T03320230  RH  055%=      5-min Rain = 0
KST2 111513Z 21009KT 33/23 A3004 RMK A01 T03340230  RH  055%=      5-min Rain = 0
KST2 111514Z 21009KT 34/23 A3004 RMK A01 T03350227  RH  053%=      5-min Rain = 0
KST2 111515Z 21007KT 33/23 A3004 RMK A01 T03330229  RH  055%=      5-min Rain = 0
KST2 111516Z 20009KT 33/23 A3004 RMK A01 T03330229  RH  054%=      5-min Rain = 0
KST2 111517Z 21008KT 33/23 A3004 RMK A01 T03330230  RH  055%=      5-min Rain = 0
KST2 111518Z 22009KT 33/23 A3004 RMK A01 T03330228  RH  054%=      5-min Rain = 0
KST2 111519Z 22009KT 33/23 A3004 RMK A01 T03340227  RH  053%=      5-min Rain = 0
KST2 111520Z 22010KT 34/23 A3004 RMK A01 T03350226  RH  053%=      5-min Rain = 0
KST2 111521Z 22007KT 33/23 A3004 RMK A01 T03340227  RH  053%=      5-min Rain = 0
KST2 111522Z 21007KT 33/23 A3004 RMK A01 T03340227  RH  054%=      5-min Rain = 0
KST2 111523Z 19009KT 34/23 A3004 RMK A01 T03350229  RH  054%=      5-min Rain = 0
KST2 111524Z 20011KT 34/23 A3004 RMK A01 T03360228  RH  053%=      5-min Rain = 0
KST2 111525Z 21012KT 34/23 A3004 RMK A01 T03360226  RH  052%=      5-min Rain = 0
KST2 111526Z 22009KT 34/23 A3004 RMK A01 T03360226  RH  053%=      5-min Rain = 0
KST2 111527Z 22008KT 34/23 A3004 RMK A01 T03350226  RH  053%=      5-min Rain = 0
KST2 111528Z 20011KT 34/23 A3004 RMK A01 T03350226  RH  053%=      5-min Rain = 0
KST2 111529Z 21010KT 33/23 A3004 RMK A01 T03340228  RH  054%=      5-min Rain = 0
KST2 111530Z 21008KT 33/23 A3004 RMK A01 T03340227  RH  053%=      5-min Rain = 0
KST2 111531Z 20011KT 33/23 A3004 RMK A01 T03340227  RH  054%=      5-min Rain = 0
KST2 111532Z 19010KT 33/23 A3004 RMK A01 T03340226  RH  053%=      5-min Rain = 0
KST2 111533Z 20012KT 34/23 A3004 RMK A01 T03350226  RH  053%=      5-min Rain = 0
KST2 111534Z 20009KT 34/23 A3004 RMK A01 T03350228  RH  053%=      5-min Rain = 0
KST2 111535Z 19011KT 34/23 A3004 RMK A01 T03380229  RH  053%=      5-min Rain = 0
KST2 111536Z 20013KT 34/23 A3004 RMK A01 T03390226  RH  052%=      5-min Rain = 0
KST2 111537Z 20009KT 34/23 A3004 RMK A01 T03380228  RH  053%=      5-min Rain = 0
KST2 111538Z 19011KT 34/23 A3004 RMK A01 T03370227  RH  053%=      5-min Rain = 0
KST2 111539Z 19012KT 34/23 A3004 RMK A01 T03380226  RH  052%=      5-min Rain = 0
KST2 111540Z 20013KT 34/23 A3004 RMK A01 T03380226  RH  052%=      5-min Rain = 0
KST2 111541Z 21012KT 34/23 A3004 RMK A01 T03390227  RH  052%=      5-min Rain = 0
KST2 111542Z 21011KT 34/23 A3004 RMK A01 T03390227  RH  052%=      5-min Rain = 0
KST2 111543Z 22009KT 34/23 A3004 RMK A01 T03380228  RH  053%=      5-min Rain = 0
KST2 111544Z 20008KT 34/23 A3004 RMK A01 T03370227  RH  053%=      5-min Rain = 0
KST2 111545Z 19010KT 34/23 A3004 RMK A01 T03390227  RH  052%=      5-min Rain = 0
KST2 111546Z 19010KT 34/23 A3004 RMK A01 T03400228  RH  052%=      5-min Rain = 0
KST2 111547Z 20010KT 34/23 A3004 RMK A01 T03410227  RH  052%=      5-min Rain = 0
KST2 111548Z 19009KT 34/23 A3004 RMK A01 T03400228  RH  052%=      5-min Rain = 0
KST2 111549Z 18012KT 34/23 A3003 RMK A01 T03420226  RH  051%=      5-min Rain = 0
KST2 111550Z 20013KT 34/23 A3003 RMK A01 T03430227  RH  051%=      5-min Rain = 0
KST2 111551Z 20010KT 34/23 A3004 RMK A01 T03430228  RH  051%=      5-min Rain = 0
KST2 111552Z 20011KT 35/23 A3003 RMK A01 T03450228  RH  051%=      5-min Rain = 0
KST2 111553Z 19011KT 35/23 A3004 RMK A01 T03460227  RH  050%=      5-min Rain = 0
KST2 111554Z 19010KT 34/23 A3004 RMK A01 T03440226  RH  050%=      5-min Rain = 0
KST2 111555Z 21010KT 34/23 A3004 RMK A01 T03440227  RH  051%=      5-min Rain = 0
KST2 111556Z 21009KT 34/23 A3004 RMK A01 T03440227  RH  051%=      5-min Rain = 0
KST2 111557Z 21011KT 35/23 A3004 RMK A01 T03450228  RH  051%=      5-min Rain = 0
KST2 111558Z 20010KT 35/23 A3004 RMK A01 T03450227  RH  050%=      5-min Rain = 0
KST2 111559Z 19009KT 34/23 A3004 RMK A01 T03440226  RH  050%=      5-min Rain = 0
KST2 111600Z 18008KT 34/22 A3004 RMK A01 T03430224  RH  050%=      5-min Rain = 0
KST2 111601Z 20007KT 34/23 A3004 RMK A01 T03430225  RH  050%=      5-min Rain = 0
KST2 111602Z 20010KT 34/23 A3004 RMK A01 T03430228  RH  051%=      5-min Rain = 0
KST2 111603Z 20010KT 35/23 A3004 RMK A01 T03450228  RH  051%=      5-min Rain = 0
KST2 111604Z 19009KT 35/23 A3004 RMK A01 T03460226  RH  050%=      5-min Rain = 0
KST2 111605Z 20009KT 35/23 A3004 RMK A01 T03470229  RH  050%=      5-min Rain = 0
KST2 111606Z 21011KT 35/23 A3004 RMK A01 T03500230  RH  050%=      5-min Rain = 0
KST2 111607Z 21010KT 35/23 A3004 RMK A01 T03500227  RH  049%=      5-min Rain = 0
KST2 111608Z 20008KT 35/23 A3004 RMK A01 T03480229  RH  050%=      5-min Rain = 0
KST2 111609Z 19010KT 35/23 A3004 RMK A01 T03510227  RH  049%=      5-min Rain = 0
KST2 111610Z 20009KT 35/23 A3004 RMK A01 T03510227  RH  049%=      5-min Rain = 0
KST2 111611Z 21009KT 35/23 A3004 RMK A01 T03520228  RH  049%=      5-min Rain = 0
KST2 111612Z 20013KT 35/23 A3003 RMK A01 T03520228  RH  049%=      5-min Rain = 0
KST2 111613Z 20011KT 35/23 A3004 RMK A01 T03510227  RH  049%=      5-min Rain = 0
KST2 111614Z 20011KT 35/23 A3004 RMK A01 T03500227  RH  049%=      5-min Rain = 0
KST2 111615Z 19009KT 35/22 A3004 RMK A01 T03490223  RH  048%=      5-min Rain = 0
KST2 111616Z 19010KT 35/22 A3004 RMK A01 T03480223  RH  048%=      5-min Rain = 0
KST2 111617Z 19010KT 35/22 A3004 RMK A01 T03470223  RH  049%=      5-min Rain = 0
KST2 111618Z 20008KT 35/22 A3004 RMK A01 T03460223  RH  049%=      5-min Rain = 0
KST2 111619Z 20007KT 35/22 A3004 RMK A01 T03470224  RH  049%=      5-min Rain = 0
KST2 111620Z 19010KT 35/23 A3004 RMK A01 T03480226  RH  049%=      5-min Rain = 0
KST2 111621Z 19009KT 35/23 A3004 RMK A01 T03480226  RH  049%=      5-min Rain = 0
KST2 111622Z 21006KT 35/23 A3004 RMK A01 T03490228  RH  050%=      5-min Rain = 0
KST2 111623Z 21009KT 35/23 A3004 RMK A01 T03500229  RH  049%=      5-min Rain = 0
KST2 111624Z 21009KT 35/23 A3004 RMK A01 T03530228  RH  049%=      5-min Rain = 0
KST2 111625Z 20009KT 36/23 A3004 RMK A01 T03550226  RH  048%=      5-min Rain = 0
KST2 111626Z 18007KT 36/23 A3004 RMK A01 T03550225  RH  047%=      5-min Rain = 0
KST2 111627Z 18006KT 35/22 A3004 RMK A01 T03540223  RH  047%=      5-min Rain = 0
KST2 111628Z 18006KT 35/22 A3004 RMK A01 T03520223  RH  047%=      5-min Rain = 0
KST2 111629Z 22006KT 35/23 A3004 RMK A01 T03530227  RH  048%=      5-min Rain = 0
KST2 111630Z 20005KT 36/23 A3004 RMK A01 T03550226  RH  047%=      5-min Rain = 0
KST2 111631Z 20009KT 36/23 A3004 RMK A01 T03550227  RH  048%=      5-min Rain = 0
KST2 111632Z 20007KT 35/22 A3004 RMK A01 T03540224  RH  047%=      5-min Rain = 0
KST2 111633Z 21010KT 35/23 A3004 RMK A01 T03540229  RH  049%=      5-min Rain = 0
KST2 111634Z 21012KT 36/23 A3004 RMK A01 T03580225  RH  046%=      5-min Rain = 0
KST2 111635Z 22010KT 36/23 A3004 RMK A01 T03580225  RH  046%=      5-min Rain = 0
KST2 111636Z 22008KT 36/23 A3004 RMK A01 T03580225  RH  046%=      5-min Rain = 0
KST2 111637Z 21008KT 36/22 A3004 RMK A01 T03550224  RH  047%=      5-min Rain = 0
KST2 111638Z 18006KT 35/22 A3004 RMK A01 T03530222  RH  047%=      5-min Rain = 0
KST2 111639Z 18006KT 35/22 A3004 RMK A01 T03510220  RH  047%=      5-min Rain = 0
KST2 111640Z 19008KT 35/22 A3003 RMK A01 T03510222  RH  047%=      5-min Rain = 0
KST2 111641Z 18006KT 35/22 A3004 RMK A01 T03540222  RH  046%=      5-min Rain = 0
KST2 111642Z 19005KT 36/22 A3004 RMK A01 T03560222  RH  046%=      5-min Rain = 0
KST2 111643Z 19005KT 36/22 A3004 RMK A01 T03570223  RH  046%=      5-min Rain = 0
KST2 111644Z 18006KT 36/23 A3004 RMK A01 T03570225  RH  047%=      5-min Rain = 0
KST2 111645Z 19009KT 36/23 A3004 RMK A01 T03590226  RH  046%=      5-min Rain = 0
KST2 111646Z 20009KT 36/23 A3004 RMK A01 T03610227  RH  046%=      5-min Rain = 0
KST2 111647Z 20006KT 36/23 A3004 RMK A01 T03620225  RH  046%=      5-min Rain = 0
KST2 111648Z 19007KT 36/22 A3004 RMK A01 T03590224  RH  046%=      5-min Rain = 0
KST2 111649Z 20009KT 36/23 A3003 RMK A01 T03570225  RH  046%=      5-min Rain = 0
KST2 111650Z 22008KT 36/23 A3004 RMK A01 T03580225  RH  046%=      5-min Rain = 0
KST2 111651Z 22009KT 36/23 A3004 RMK A01 T03600225  RH  046%=      5-min Rain = 0
KST2 111652Z 23007KT 36/22 A3004 RMK A01 T03610223  RH  045%=      5-min Rain = 0
KST2 111653Z 22008KT 36/22 A3004 RMK A01 T03610224  RH  045%=      5-min Rain = 0
KST2 111654Z 20009KT 36/23 A3004 RMK A01 T03610227  RH  046%=      5-min Rain = 0
KST2 111655Z 19011KT 36/23 A3004 RMK A01 T03610225  RH  046%=      5-min Rain = 0
KST2 111656Z 19008KT 36/23 A3004 RMK A01 T03630225  RH  045%=      5-min Rain = 0
KST2 111657Z 18006KT 36/23 A3004 RMK A01 T03610225  RH  046%=      5-min Rain = 0
KST2 111658Z 19007KT 36/22 A3003 RMK A01 T03610224  RH  045%=      5-min Rain = 0
KST2 111659Z 21011KT 36/23 A3003 RMK A01 T03620226  RH  046%=      5-min Rain = 0
KST2 111700Z 20011KT 36/23 A3003 RMK A01 T03640226  RH  045%=      5-min Rain = 0
KST2 111701Z 21009KT 36/23 A3003 RMK A01 T03640226  RH  045%=      5-min Rain = 0
KST2 111702Z 20007KT 36/23 A3003 RMK A01 T03640225  RH  045%=      5-min Rain = 0
KST2 111703Z 20006KT 36/22 A3003 RMK A01 T03630224  RH  045%=      5-min Rain = 0
KST2 111704Z 22009KT 36/23 A3003 RMK A01 T03620226  RH  046%=      5-min Rain = 0
KST2 111705Z 22011KT 36/22 A3003 RMK A01 T03630224  RH  045%=      5-min Rain = 0
KST2 111706Z 22010KT 36/22 A3003 RMK A01 T03630223  RH  044%=      5-min Rain = 0
KST2 111707Z 22007KT 36/23 A3003 RMK A01 T03640226  RH  045%=      5-min Rain = 0
KST2 111708Z 19007KT 37/22 A3004 RMK A01 T03660224  RH  044%=      5-min Rain = 0
KST2 111709Z 22008KT 37/22 A3003 RMK A01 T03660224  RH  044%=      5-min Rain = 0
KST2 111710Z 21006KT 37/23 A3004 RMK A01 T03660226  RH  045%=      5-min Rain = 0
KST2 111711Z 17006KT 37/23 A3004 RMK A01 T03650225  RH  045%=      5-min Rain = 0
KST2 111712Z 19009KT 37/23 A3003 RMK A01 T03650225  RH  044%=      5-min Rain = 0
KST2 111713Z 20010KT 37/23 A3003 RMK A01 T03680228  RH  045%=      5-min Rain = 0
KST2 111714Z 20008KT 37/23 A3003 RMK A01 T03680226  RH  044%=      5-min Rain = 0
KST2 111715Z 20007KT 37/23 A3003 RMK A01 T03680225  RH  044%=      5-min Rain = 0
KST2 111716Z 18010KT 37/23 A3003 RMK A01 T03680226  RH  044%=      5-min Rain = 0
KST2 111717Z 19009KT 37/22 A3003 RMK A01 T03690223  RH  043%=      5-min Rain = 0
KST2 111718Z 17010KT 37/22 A3003 RMK A01 T03660224  RH  044%=      5-min Rain = 0
KST2 111719Z 17008KT 37/22 A3003 RMK A01 T03670222  RH  043%=      5-min Rain = 0
KST2 111720Z 16006KT 37/22 A3003 RMK A01 T03650221  RH  044%=      5-min Rain = 0
KST2 111721Z 16005KT 36/22 A3003 RMK A01 T03630221  RH  044%=      5-min Rain = 0
KST2 111722Z 16006KT 36/22 A3003 RMK A01 T03630222  RH  044%=      5-min Rain = 0
KST2 111723Z 16009KT 37/22 A3003 RMK A01 T03680224  RH  044%=      5-min Rain = 0
KST2 111724Z 16013KT 37/22 A3003 RMK A01 T03700223  RH  043%=      5-min Rain = 0
KST2 111725Z 17010KT 37/22 A3003 RMK A01 T03700221  RH  043%=      5-min Rain = 0
KST2 111726Z 17009KT 37/22 A3003 RMK A01 T03680222  RH  043%=      5-min Rain = 0
KST2 111727Z 17009KT 37/22 A3003 RMK A01 T03700222  RH  043%=      5-min Rain = 0
KST2 111728Z 16009KT 37/22 A3003 RMK A01 T03700220  RH  042%=      5-min Rain = 0
KST2 111729Z 16007KT 37/22 A3003 RMK A01 T03690220  RH  042%=      5-min Rain = 0
KST2 111730Z 15008KT 37/22 A3003 RMK A01 T03690220  RH  042%=      5-min Rain = 0
KST2 111731Z 18009KT 37/22 A3003 RMK A01 T03680221  RH  043%=      5-min Rain = 0
KST2 111732Z 20007KT 37/22 A3003 RMK A01 T03710223  RH  043%=      5-min Rain = 0
KST2 111733Z 18007KT 37/22 A3003 RMK A01 T03720220  RH  042%=      5-min Rain = 0
KST2 111734Z 19010KT 37/22 A3003 RMK A01 T03710221  RH  042%=      5-min Rain = 0
KST2 111735Z 18009KT 37/22 A3003 RMK A01 T03720218  RH  041%=      5-min Rain = 0
KST2 111736Z 19008KT 37/22 A3003 RMK A01 T03720222  RH  042%=      5-min Rain = 0
KST2 111737Z 20008KT 37/22 A3003 RMK A01 T03740218  RH  041%=      5-min Rain = 0
KST2 111738Z 20006KT 37/21 A3003 RMK A01 T03730214  RH  040%=      5-min Rain = 0
KST2 111739Z 22007KT 37/22 A3003 RMK A01 T03700216  RH  041%=      5-min Rain = 0
KST2 111740Z 22007KT 37/22 A3003 RMK A01 T03710216  RH  041%=      5-min Rain = 0
KST2 111741Z 21007KT 37/22 A3003 RMK A01 T03730219  RH  041%=      5-min Rain = 0
KST2 111742Z 18010KT 38/22 A3003 RMK A01 T03750219  RH  041%=      5-min Rain = 0
KST2 111743Z 17009KT 37/22 A3003 RMK A01 T03740218  RH  041%=      5-min Rain = 0
KST2 111744Z 16009KT 38/22 A3003 RMK A01 T03760217  RH  040%=      5-min Rain = 0
KST2 111745Z 17009KT 38/22 A3003 RMK A01 T03780217  RH  040%=      5-min Rain = 0
KST2 111746Z 15007KT 38/22 A3003 RMK A01 T03760216  RH  040%=      5-min Rain = 0
KST2 111747Z 17008KT 38/22 A3003 RMK A01 T03750219  RH  041%=      5-min Rain = 0
KST2 111748Z 17008KT 38/22 A3003 RMK A01 T03780216  RH  039%=      5-min Rain = 0
KST2 111749Z 14007KT 38/21 A3003 RMK A01 T03760213  RH  039%=      5-min Rain = 0
KST2 111750Z 14009KT 37/22 A3003 RMK A01 T03740215  RH  040%=      5-min Rain = 0
KST2 111751Z 16011KT 37/22 A3003 RMK A01 T03730220  RH  041%=      5-min Rain = 0
KST2 111752Z 16011KT 38/22 A3003 RMK A01 T03760219  RH  040%=      5-min Rain = 0
KST2 111753Z 15010KT 38/22 A3003 RMK A01 T03770217  RH  040%=      5-min Rain = 0
KST2 111754Z 15009KT 38/22 A3003 RMK A01 T03770219  RH  040%=      5-min Rain = 0
KST2 111755Z 19010KT 38/22 A3003 RMK A01 T03790219  RH  040%=      5-min Rain = 0
KST2 111756Z 20007KT 38/22 A3003 RMK A01 T03800218  RH  039%=      5-min Rain = 0
KST2 111757Z 18006KT 38/21 A3003 RMK A01 T03770214  RH  039%=      5-min Rain = 0
KST2 111758Z 20006KT 38/21 A3003 RMK A01 T03760211  RH  039%=      5-min Rain = 0
KST2 111759Z 21009KT 38/21 A3003 RMK A01 T03760209  RH  038%=      5-min Rain = 0
KST2 111800Z 20008KT 38/21 A3003 RMK A01 T03760209  RH  038%=      5-min Rain = 0
KST2 111801Z 18007KT 38/21 A3003 RMK A01 T03790214  RH  039%=      5-min Rain = 0
KST2 111802Z 18007KT 38/22 A3003 RMK A01 T03810219  RH  039%=      5-min Rain = 0
KST2 111803Z 17007KT 38/22 A3003 RMK A01 T03830219  RH  039%=      5-min Rain = 0
KST2 111804Z 17005KT 38/22 A3003 RMK A01 T03800217  RH  039%=      5-min Rain = 0
KST2 111805Z 16009KT 38/22 A3003 RMK A01 T03790224  RH  041%=      5-min Rain = 0
KST2 111806Z 17009KT 38/23 A3003 RMK A01 T03810225  RH  041%=      5-min Rain = 0
KST2 111807Z 17010KT 38/23 A3003 RMK A01 T03820226  RH  041%=      5-min Rain = 0
KST2 111808Z 19008KT 38/22 A3003 RMK A01 T03820223  RH  040%=      5-min Rain = 0
KST2 111809Z 17010KT 38/23 A3003 RMK A01 T03820225  RH  041%=      5-min Rain = 0
KST2 111810Z 16012KT 38/23 A3002 RMK A01 T03820225  RH  041%=      5-min Rain = 0
KST2 111811Z 16009KT 38/22 A3002 RMK A01 T03820224  RH  041%=      5-min Rain = 0
KST2 111812Z 17010KT 38/22 A3002 RMK A01 T03810223  RH  040%=      5-min Rain = 0
KST2 111813Z 17008KT 38/22 A3002 RMK A01 T03810221  RH  040%=      5-min Rain = 0
KST2 111814Z 19010KT 38/22 A3002 RMK A01 T03810222  RH  040%=      5-min Rain = 0
KST2 111815Z 19009KT 38/22 A3002 RMK A01 T03810220  RH  040%=      5-min Rain = 0
KST2 111816Z 19008KT 38/22 A3002 RMK A01 T03780217  RH  040%=      5-min Rain = 0
KST2 111817Z 21010KT 38/22 A3002 RMK A01 T03780218  RH  040%=      5-min Rain = 0
KST2 111818Z 19008KT 38/22 A3002 RMK A01 T03800215  RH  039%=      5-min Rain = 0
KST2 111819Z 20009KT 38/22 A3002 RMK A01 T03820220  RH  039%=      5-min Rain = 0
KST2 111820Z 18010KT 38/22 A3002 RMK A01 T03830218  RH  039%=      5-min Rain = 0
KST2 111821Z 15011KT 38/22 A3002 RMK A01 T03830215  RH  038%=      5-min Rain = 0
KST2 111822Z 15011KT 38/22 A3002 RMK A01 T03830215  RH  038%=      5-min Rain = 0
KST2 111823Z 16012KT 39/21 A3002 RMK A01 T03850212  RH  037%=      5-min Rain = 0
KST2 111824Z 14011KT 38/21 A3002 RMK A01 T03840209  RH  036%=      5-min Rain = 0
KST2 111825Z 15010KT 38/21 A3002 RMK A01 T03830209  RH  037%=      5-min Rain = 0
KST2 111826Z 14009KT 38/22 A3002 RMK A01 T03830215  RH  038%=      5-min Rain = 0
KST2 111827Z 16012KT 38/22 A3002 RMK A01 T03840217  RH  038%=      5-min Rain = 0
KST2 111828Z 16012KT 38/21 A3002 RMK A01 T03830208  RH  036%=      5-min Rain = 0
KST2 111829Z 16011KT 38/20 A3002 RMK A01 T03820204  RH  036%=      5-min Rain = 0
KST2 111830Z 16009KT 38/20 A3002 RMK A01 T03820203  RH  035%=      5-min Rain = 0
KST2 111831Z 16008KT 38/21 A3002 RMK A01 T03810206  RH  036%=      5-min Rain = 0
KST2 111832Z 16009KT 38/22 A3002 RMK A01 T03840217  RH  038%=      5-min Rain = 0
KST2 111833Z 18010KT 39/21 A3002 RMK A01 T03870211  RH  036%=      5-min Rain = 0
KST2 111834Z 19009KT 39/21 A3002 RMK A01 T03850208  RH  036%=      5-min Rain = 0
KST2 111835Z 18009KT 38/21 A3002 RMK A01 T03840205  RH  035%=      5-min Rain = 0
KST2 111836Z 18013KT 38/21 A3002 RMK A01 T03840209  RH  036%=      5-min Rain = 0
KST2 111837Z 18013KT 39/21 A3002 RMK A01 T03880214  RH  037%=      5-min Rain = 0
KST2 111838Z 18011KT 39/21 A3002 RMK A01 T03890212  RH  036%=      5-min Rain = 0
KST2 111839Z 17009KT 39/21 A3001 RMK A01 T03870208  RH  036%=      5-min Rain = 0
KST2 111840Z 16008KT 38/21 A3001 RMK A01 T03830208  RH  036%=      5-min Rain = 0
KST2 111841Z 16008KT 38/21 A3001 RMK A01 T03820210  RH  037%=      5-min Rain = 0
KST2 111842Z 17009G16KT 38/21 A3001 RMK A01 T03830213  RH  037%=      5-min Rain = 0
KST2 111843Z 15013KT 39/21 A3001 RMK A01 T03870209  RH  036%=      5-min Rain = 0
KST2 111844Z 13010KT 39/21 A3001 RMK A01 T03880206  RH  035%=      5-min Rain = 0
KST2 111845Z 17012KT 39/21 A3001 RMK A01 T03870207  RH  035%=      5-min Rain = 0
KST2 111846Z 18013KT 39/20 A3001 RMK A01 T03880204  RH  035%=      5-min Rain = 0
KST2 111847Z 19010KT 39/20 A3001 RMK A01 T03860198  RH  034%=      5-min Rain = 0
KST2 111848Z 18010KT 38/20 A3001 RMK A01 T03840202  RH  035%=      5-min Rain = 0
KST2 111849Z 19012KT 39/20 A3001 RMK A01 T03850196  RH  033%=      5-min Rain = 0
KST2 111850Z 19010KT 38/20 A3001 RMK A01 T03840201  RH  035%=      5-min Rain = 0
KST2 111851Z 18010G15KT 38/21 A3001 RMK A01 T03820205  RH  036%=      5-min Rain = 0
KST2 111852Z 18014KT 39/20 A3001 RMK A01 T03850196  RH  033%=      5-min Rain = 0
KST2 111853Z 18013KT 39/20 A3001 RMK A01 T03860196  RH  033%=      5-min Rain = 0
KST2 111854Z 19010KT 39/20 A3001 RMK A01 T03860197  RH  034%=      5-min Rain = 0
KST2 111855Z 18011KT 39/20 A3001 RMK A01 T03860197  RH  033%=      5-min Rain = 0
KST2 111856Z 16013KT 39/20 A3001 RMK A01 T03870198  RH  033%=      5-min Rain = 0
KST2 111857Z 17010KT 39/19 A3001 RMK A01 T03880194  RH  032%=      5-min Rain = 0
KST2 111858Z 17013KT 39/20 A3001 RMK A01 T03870197  RH  033%=      5-min Rain = 0
KST2 111859Z 15010KT 39/20 A3001 RMK A01 T03860198  RH  034%=      5-min Rain = 0
KST2 111900Z 14008KT 39/20 A3001 RMK A01 T03850199  RH  034%=      5-min Rain = 0
KST2 111901Z 17009KT 39/20 A3001 RMK A01 T03850203  RH  035%=      5-min Rain = 0
KST2 111902Z 18013KT 39/21 A3001 RMK A01 T03870206  RH  035%=      5-min Rain = 0
KST2 111903Z 19012KT 39/21 A3001 RMK A01 T03890207  RH  035%=      5-min Rain = 0
KST2 111904Z 19011KT 39/21 A3001 RMK A01 T03870206  RH  035%=      5-min Rain = 0
KST2 111905Z 18009KT 39/21 A3001 RMK A01 T03870206  RH  035%=      5-min Rain = 0
KST2 111906Z 16010G16KT 39/21 A3001 RMK A01 T03880206  RH  035%=      5-min Rain = 0
KST2 111907Z 17009KT 39/21 A30 RMK A01 T03870205  RH  035%=      5-min Rain = 0
KST2 111908Z 17008KT 39/21 A30 RMK A01 T03860207  RH  036%=      5-min Rain = 0
KST2 111909Z 16008KT 39/21 A30 RMK A01 T03880207  RH  035%=      5-min Rain = 0
KST2 111910Z 15008KT 39/21 A30 RMK A01 T03870208  RH  036%=      5-min Rain = 0
KST2 111911Z 15013G20KT 39/21 A30 RMK A01 T03860207  RH  036%=      5-min Rain = 0
KST2 111912Z 17013KT 39/21 A30 RMK A01 T03900209  RH  035%=      5-min Rain = 0
KST2 111913Z 17014KT 39/21 A30 RMK A01 T03940207  RH  034%=      5-min Rain = 0
KST2 111914Z 18014KT 40/20 A30 RMK A01 T03950204  RH  033%=      5-min Rain = 0
KST2 111915Z 18012KT 40/20 A30 RMK A01 T03960200  RH  032%=      5-min Rain = 0
KST2 111916Z 17010KT 39/20 A30 RMK A01 T03920200  RH  033%=      5-min Rain = 0
KST2 111917Z 17013KT 39/20 A30 RMK A01 T03920203  RH  034%=      5-min Rain = 0
KST2 111918Z 16013KT 39/20 A30 RMK A01 T03920202  RH  034%=      5-min Rain = 0
KST2 111919Z 17010KT 39/20 A30 RMK A01 T03900200  RH  033%=      5-min Rain = 0
KST2 111920Z 15011G17KT 39/20 A30 RMK A01 T03870202  RH  034%=      5-min Rain = 0
KST2 111921Z 13013KT 39/20 A30 RMK A01 T03880202  RH  034%=      5-min Rain = 0
KST2 111922Z 14014KT 39/20 A30 RMK A01 T03890201  RH  034%=      5-min Rain = 0
KST2 111923Z 15011KT 39/20 A30 RMK A01 T03890199  RH  033%=      5-min Rain = 0
KST2 111924Z 15011KT 39/20 A30 RMK A01 T03880199  RH  034%=      5-min Rain = 0
KST2 111925Z 16011KT 39/20 A30 RMK A01 T03880198  RH  033%=      5-min Rain = 0
KST2 111926Z 14014KT 39/20 A30 RMK A01 T03890203  RH  034%=      5-min Rain = 0
KST2 111927Z 14012KT 39/20 A30 RMK A01 T03930203  RH  033%=      5-min Rain = 0
KST2 111928Z 13012KT 39/20 A30 RMK A01 T03940201  RH  033%=      5-min Rain = 0
KST2 111929Z 15010KT 39/20 A30 RMK A01 T03910200  RH  033%=      5-min Rain = 0
KST2 111930Z 16009KT 39/20 A30 RMK A01 T03890202  RH  034%=      5-min Rain = 0
KST2 111931Z 16014KT 39/21 A30 RMK A01 T03910205  RH  034%=      5-min Rain = 0
KST2 111932Z 18014KT 39/20 A30 RMK A01 T03920201  RH  033%=      5-min Rain = 0
KST2 111933Z 18012KT 39/20 A30 RMK A01 T03890200  RH  034%=      5-min Rain = 0
KST2 111934Z 16012KT 39/20 A30 RMK A01 T03870197  RH  033%=      5-min Rain = 0
KST2 111935Z 15014KT 39/20 A30 RMK A01 T03870198  RH  033%=      5-min Rain = 0
KST2 111936Z 14011KT 39/20 A30 RMK A01 T03880198  RH  033%=      5-min Rain = 0
KST2 111937Z 16012KT 39/20 A30 RMK A01 T03870200  RH  034%=      5-min Rain = 0
KST2 111938Z 17012KT 39/20 A30 RMK A01 T03880200  RH  034%=      5-min Rain = 0
KST2 111939Z 19011G16KT 39/20 A30 RMK A01 T03910195  RH  032%=      5-min Rain = 0
KST2 111940Z 18012G18KT 39/20 A2999 RMK A01 T03890197  RH  033%=      5-min Rain = 0
KST2 111941Z 15017KT 39/20 A2999 RMK A01 T03910198  RH  033%=      5-min Rain = 0
KST2 111942Z 14012KT 39/19 A30 RMK A01 T03910193  RH  032%=      5-min Rain = 0
KST2 111943Z 16015KT 39/19 A30 RMK A01 T03900193  RH  032%=      5-min Rain = 0
KST2 111944Z 16014KT 39/19 A30 RMK A01 T03920189  RH  031%=      5-min Rain = 0
KST2 111945Z 16011KT 39/19 A30 RMK A01 T03920188  RH  031%=      5-min Rain = 0
KST2 111946Z 16012KT 39/19 A30 RMK A01 T03920185  RH  030%=      5-min Rain = 0
KST2 111947Z 17010KT 39/19 A30 RMK A01 T03910185  RH  030%=      5-min Rain = 0
KST2 111948Z 18011KT 39/19 A2999 RMK A01 T03910191  RH  031%=      5-min Rain = 0
KST2 111949Z 20014KT 39/20 A2999 RMK A01 T03910196  RH  032%=      5-min Rain = 0
KST2 111950Z 20012KT 39/20 A2999 RMK A01 T03910197  RH  033%=      5-min Rain = 0
KST2 111951Z 20014KT 39/20 A2999 RMK A01 T03900199  RH  033%=      5-min Rain = 0
KST2 111952Z 15012G17KT 39/20 A2999 RMK A01 T03930196  RH  032%=      5-min Rain = 0
KST2 111953Z 15011KT 39/19 A2999 RMK A01 T03930193  RH  032%=      5-min Rain = 0
KST2 111954Z 17011G16KT 39/19 A2999 RMK A01 T03910194  RH  032%=      5-min Rain = 0
KST2 111955Z 17015KT 39/20 A2999 RMK A01 T03910195  RH  032%=      5-min Rain = 0
KST2 111956Z 18011KT 39/19 A2999 RMK A01 T03930190  RH  031%=      5-min Rain = 0
KST2 111957Z 19009KT 39/19 A2999 RMK A01 T03910193  RH  032%=      5-min Rain = 0
KST2 111958Z 18008KT 39/20 A2999 RMK A01 T03910195  RH  032%=      5-min Rain = 0
KST2 111959Z 15010KT 39/19 A2999 RMK A01 T03930194  RH  032%=      5-min Rain = 0
KST2 112000Z 14014KT 39/19 A2999 RMK A01 T03930192  RH  031%=      5-min Rain = 0
KST2 112001Z 16016KT 39/19 A2999 RMK A01 T03930194  RH  032%=      5-min Rain = 0
KST2 112002Z 17010KT 40/19 A2999 RMK A01 T03950190  RH  030%=      5-min Rain = 0
KST2 112003Z 16014KT 40/19 A2999 RMK A01 T03960189  RH  030%=      5-min Rain = 0
KST2 112004Z 16013KT 40/19 A2999 RMK A01 T03970189  RH  030%=      5-min Rain = 0
KST2 112005Z 18013KT 40/19 A2999 RMK A01 T03980188  RH  030%=      5-min Rain = 0
KST2 112006Z 18013KT 40/19 A2999 RMK A01 T03970186  RH  029%=      5-min Rain = 0
KST2 112007Z 18013KT 40/18 A2999 RMK A01 T03950183  RH  029%=      5-min Rain = 0
KST2 112008Z 18009KT 39/18 A2999 RMK A01 T03930183  RH  029%=      5-min Rain = 0
KST2 112009Z 17013KT 40/18 A2998 RMK A01 T03960184  RH  029%=      5-min Rain = 0
KST2 112010Z 17012KT 40/19 A2998 RMK A01 T03960188  RH  030%=      5-min Rain = 0
KST2 112011Z 17008KT 40/18 A2998 RMK A01 T03960184  RH  029%=      5-min Rain = 0
KST2 112012Z 18008KT 39/18 A2998 RMK A01 T03940182  RH  029%=      5-min Rain = 0
KST2 112013Z 16010G16KT 39/19 A2998 RMK A01 T03930192  RH  031%=      5-min Rain = 0
KST2 112014Z 15011G17KT 39/20 A2998 RMK A01 T03940200  RH  033%=      5-min Rain = 0
KST2 112015Z 14012KT 40/20 A2998 RMK A01 T03950199  RH  032%=      5-min Rain = 0
KST2 112016Z 15011KT 40/20 A2998 RMK A01 T03950201  RH  033%=      5-min Rain = 0
KST2 112017Z 17013G20KT 40/20 A2998 RMK A01 T03980199  RH  032%=      5-min Rain = 0
KST2 112018Z 17018KT 40/20 A2998 RMK A01 T03960195  RH  031%=      5-min Rain = 0
KST2 112019Z 17015KT 39/20 A2998 RMK A01 T03930195  RH  032%=      5-min Rain = 0
KST2 112020Z 18013KT 39/20 A2998 RMK A01 T03940195  RH  032%=      5-min Rain = 0
KST2 112021Z 17011KT 40/19 A2998 RMK A01 T03950194  RH  031%=      5-min Rain = 0
KST2 112022Z 17012KT 40/19 A2998 RMK A01 T03950194  RH  031%=      5-min Rain = 0
KST2 112023Z 17015KT 40/20 A2998 RMK A01 T03950196  RH  032%=      5-min Rain = 0
KST2 112024Z 17013KT 40/20 A2998 RMK A01 T03970195  RH  031%=      5-min Rain = 0
KST2 112025Z 15011KT 40/20 A2998 RMK A01 T03960195  RH  031%=      5-min Rain = 0
KST2 112026Z 15010KT 39/20 A2998 RMK A01 T03940195  RH  032%=      5-min Rain = 0
KST2 112027Z 17010G16KT 39/20 A2998 RMK A01 T03920195  RH  032%=      5-min Rain = 0
KST2 112028Z 16014G20KT 39/19 A2998 RMK A01 T03940194  RH  032%=      5-min Rain = 0
KST2 112029Z 15013G18KT 39/19 A2998 RMK A01 T03940193  RH  031%=      5-min Rain = 0
KST2 112030Z 16011KT 39/19 A2998 RMK A01 T03930188  RH  031%=      5-min Rain = 0
KST2 112031Z 17012KT 39/19 A2998 RMK A01 T03920192  RH  031%=      5-min Rain = 0
KST2 112032Z 17012KT 39/20 A2997 RMK A01 T03920197  RH  032%=      5-min Rain = 0
KST2 112033Z 18011KT 39/20 A2997 RMK A01 T03940196  RH  032%=      5-min Rain = 0
KST2 112034Z 17010G15KT 40/19 A2997 RMK A01 T03950194  RH  031%=      5-min Rain = 0
KST2 112035Z 15014KT 40/20 A2997 RMK A01 T03950197  RH  032%=      5-min Rain = 0
KST2 112036Z 15011KT 40/19 A2997 RMK A01 T03960193  RH  031%=      5-min Rain = 0
KST2 112037Z 15012G17KT 39/20 A2997 RMK A01 T03940195  RH  032%=      5-min Rain = 0
KST2 112038Z 16016KT 40/20 A2997 RMK A01 T03960195  RH  031%=      5-min Rain = 0
KST2 112039Z 16013KT 40/20 A2997 RMK A01 T03970197  RH  032%=      5-min Rain = 0
KST2 112040Z 15014KT 40/20 A2997 RMK A01 T03980195  RH  031%=      5-min Rain = 0
KST2 112041Z 16013KT 40/20 A2997 RMK A01 T03970195  RH  031%=      5-min Rain = 0
KST2 112042Z 16013KT 40/20 A2997 RMK A01 T03960198  RH  032%=      5-min Rain = 0
KST2 112043Z 14015KT 40/20 A2997 RMK A01 T03980195  RH  031%=      5-min Rain = 0
KST2 112044Z 13013KT 40/19 A2997 RMK A01 T03970194  RH  031%=      5-min Rain = 0
KST2 112045Z 14010KT 39/19 A2997 RMK A01 T03930193  RH  031%=      5-min Rain = 0
KST2 112046Z 14011KT 39/20 A2997 RMK A01 T03940195  RH  032%=      5-min Rain = 0
KST2 112047Z 13010KT 40/20 A2996 RMK A01 T03960195  RH  031%=      5-min Rain = 0
KST2 112048Z 18010KT 40/19 A2996 RMK A01 T03960194  RH  031%=      5-min Rain = 0
KST2 112049Z 19014G19KT 40/19 A2996 RMK A01 T03970193  RH  031%=      5-min Rain = 0
KST2 112050Z 20013KT 40/19 A2996 RMK A01 T03960189  RH  030%=      5-min Rain = 0
KST2 112051Z 19014KT 39/19 A2996 RMK A01 T03940192  RH  031%=      5-min Rain = 0
KST2 112052Z 19012KT 40/19 A2996 RMK A01 T03950194  RH  031%=      5-min Rain = 0
KST2 112053Z 16012KT 40/20 A2996 RMK A01 T03980196  RH  031%=      5-min Rain = 0
KST2 112054Z 17014KT 40/19 A2996 RMK A01 T04000194  RH  031%=      5-min Rain = 0
KST2 112055Z 16013KT 40/19 A2996 RMK A01 T03990192  RH  030%=      5-min Rain = 0
KST2 112056Z 18012KT 40/19 A2996 RMK A01 T03990189  RH  030%=      5-min Rain = 0
KST2 112057Z 18010KT 40/19 A2996 RMK A01 T03990190  RH  030%=      5-min Rain = 0
KST2 112058Z 18012KT 40/19 A2996 RMK A01 T03980194  RH  031%=      5-min Rain = 0
KST2 112059Z 18014G19KT 40/19 A2996 RMK A01 T04000187  RH  029%=      5-min Rain = 0
KST2 112100Z 17011KT 40/19 A2996 RMK A01 T03990185  RH  029%=      5-min Rain = 0
KST2 112101Z 16009KT 40/18 A2996 RMK A01 T03990183  RH  029%=      5-min Rain = 0
KST2 112102Z 17010KT 40/18 A2996 RMK A01 T03980182  RH  029%=      5-min Rain = 0
KST2 112103Z 17013KT 40/19 A2996 RMK A01 T03990187  RH  029%=      5-min Rain = 0
KST2 112104Z 17012KT 40/19 A2996 RMK A01 T04000185  RH  029%=      5-min Rain = 0
KST2 112105Z 16010KT 40/19 A2996 RMK A01 T03980186  RH  029%=      5-min Rain = 0
KST2 112106Z 16010KT 40/19 A2996 RMK A01 T03970187  RH  030%=      5-min Rain = 0
KST2 112107Z 19012KT 40/19 A2996 RMK A01 T03990187  RH  029%=      5-min Rain = 0
KST2 112108Z 18014KT 40/18 A2996 RMK A01 T04010183  RH  028%=      5-min Rain = 0
KST2 112109Z 18016KT 40/19 A2996 RMK A01 T04020190  RH  030%=      5-min Rain = 0
KST2 112110Z 17016KT 40/19 A2996 RMK A01 T04010186  RH  029%=      5-min Rain = 0
KST2 112111Z 17014KT 40/19 A2996 RMK A01 T03980186  RH  029%=      5-min Rain = 0
KST2 112112Z 16014KT 40/19 A2995 RMK A01 T03960185  RH  029%=      5-min Rain = 0
KST2 112113Z 16017G24KT 40/18 A2995 RMK A01 T03950184  RH  029%=      5-min Rain = 0
KST2 112114Z 19016KT 40/19 A2995 RMK A01 T03970188  RH  030%=      5-min Rain = 0
KST2 112115Z 19017KT 40/19 A2995 RMK A01 T03980185  RH  029%=      5-min Rain = 0
KST2 112116Z 20014KT 40/18 A2995 RMK A01 T03970184  RH  029%=      5-min Rain = 0
KST2 112117Z 20013KT 40/18 A2995 RMK A01 T03960184  RH  029%=      5-min Rain = 0
KST2 112118Z 21014KT 40/19 A2995 RMK A01 T03970188  RH  030%=      5-min Rain = 0
KST2 112119Z 19015KT 40/19 A2995 RMK A01 T03980191  RH  030%=      5-min Rain = 0
KST2 112120Z 17016KT 40/18 A2995 RMK A01 T04000184  RH  029%=      5-min Rain = 0
KST2 112121Z 17014KT 40/18 A2995 RMK A01 T04000180  RH  028%=      5-min Rain = 0
KST2 112122Z 17011KT 40/18 A2995 RMK A01 T04000179  RH  028%=      5-min Rain = 0
KST2 112123Z 18010KT 40/18 A2995 RMK A01 T03990181  RH  028%=      5-min Rain = 0
KST2 112124Z 19014KT 40/18 A2995 RMK A01 T03980183  RH  029%=      5-min Rain = 0
KST2 112125Z 19015KT 40/18 A2995 RMK A01 T03990184  RH  029%=      5-min Rain = 0
KST2 112126Z 19013KT 40/18 A2995 RMK A01 T04000183  RH  028%=      5-min Rain = 0
KST2 112127Z 19013KT 40/18 A2995 RMK A01 T03990181  RH  028%=      5-min Rain = 0
KST2 112128Z 20011KT 40/18 A2995 RMK A01 T03970182  RH  029%=      5-min Rain = 0
KST2 112129Z 20010KT 40/18 A2995 RMK A01 T03960183  RH  029%=      5-min Rain = 0
KST2 112130Z 20008KT 40/18 A2995 RMK A01 T03960183  RH  029%=      5-min Rain = 0
KST2 112131Z 16015KT 40/18 A2995 RMK A01 T03970183  RH  029%=      5-min Rain = 0
KST2 112132Z 17017KT 40/18 A2995 RMK A01 T03990181  RH  028%=      5-min Rain = 0
KST2 112133Z 17012KT 40/18 A2995 RMK A01 T03980182  RH  029%=      5-min Rain = 0
KST2 112134Z 17011KT 40/18 A2995 RMK A01 T03980181  RH  028%=      5-min Rain = 0
KST2 112135Z 17013KT 40/19 A2995 RMK A01 T03990185  RH  029%=      5-min Rain = 0
KST2 112136Z 16012KT 40/18 A2995 RMK A01 T03990184  RH  029%=      5-min Rain = 0
KST2 112137Z 17010KT 40/19 A2995 RMK A01 T03990185  RH  029%=      5-min Rain = 0
KST2 112138Z 18011KT 40/18 A2995 RMK A01 T04020184  RH  028%=      5-min Rain = 0
KST2 112139Z 19011KT 40/18 A2995 RMK A01 T04020184  RH  028%=      5-min Rain = 0
KST2 112140Z 19012KT 40/19 A2995 RMK A01 T04000186  RH  029%=      5-min Rain = 0
KST2 112141Z 19009KT 40/18 A2995 RMK A01 T03990184  RH  029%=      5-min Rain = 0
KST2 112142Z 21010KT 40/19 A2995 RMK A01 T03980185  RH  029%=      5-min Rain = 0
KST2 112143Z 20009KT 40/19 A2995 RMK A01 T03960187  RH  030%=      5-min Rain = 0
KST2 112144Z 18009KT 40/19 A2995 RMK A01 T03980187  RH  030%=      5-min Rain = 0
KST2 112145Z 18012KT 40/19 A2995 RMK A01 T04020189  RH  029%=      5-min Rain = 0
KST2 112146Z 17014KT 40/19 A2995 RMK A01 T04020187  RH  029%=      5-min Rain = 0
KST2 112147Z 17010G15KT 40/19 A2995 RMK A01 T03980185  RH  029%=      5-min Rain = 0
KST2 112148Z 19008KT 40/19 A2995 RMK A01 T03980189  RH  030%=      5-min Rain = 0
KST2 112149Z 17013KT 40/19 A2995 RMK A01 T04000188  RH  029%=      5-min Rain = 0
KST2 112150Z 16012KT 40/19 A2995 RMK A01 T04000188  RH  029%=      5-min Rain = 0
KST2 112151Z 17011KT 40/19 A2995 RMK A01 T03990186  RH  029%=      5-min Rain = 0
KST2 112152Z 17011KT 40/19 A2995 RMK A01 T03980185  RH  029%=      5-min Rain = 0
KST2 112153Z 17011KT 40/19 A2995 RMK A01 T03970185  RH  029%=      5-min Rain = 0
KST2 112154Z 17011G16KT 40/18 A2994 RMK A01 T03970184  RH  029%=      5-min Rain = 0
KST2 112155Z 18009KT 40/18 A2994 RMK A01 T03980182  RH  029%=      5-min Rain = 0
KST2 112156Z 18012KT 40/19 A2994 RMK A01 T03990185  RH  029%=      5-min Rain = 0
KST2 112157Z 20014KT 40/19 A2994 RMK A01 T04000186  RH  029%=      5-min Rain = 0
KST2 112158Z 20012KT 40/19 A2994 RMK A01 T04000185  RH  029%=      5-min Rain = 0
KST2 112159Z 18013KT 40/18 A2994 RMK A01 T04000182  RH  028%=      5-min Rain = 0
KST2 112200Z 17012KT 40/18 A2994 RMK A01 T03980184  RH  029%=      5-min Rain = 0
KST2 112201Z 16012KT 40/18 A2994 RMK A01 T03990180  RH  028%=      5-min Rain = 0
KST2 112202Z 16012KT 40/18 A2994 RMK A01 T03990179  RH  028%=      5-min Rain = 0
KST2 112203Z 16014KT 40/18 A2994 RMK A01 T03970182  RH  029%=      5-min Rain = 0
KST2 112204Z 18012KT 40/19 A2994 RMK A01 T04000185  RH  029%=      5-min Rain = 0
KST2 112205Z 17013KT 40/18 A2994 RMK A01 T04030184  RH  028%=      5-min Rain = 0
KST2 112206Z 17014KT 40/18 A2994 RMK A01 T04030184  RH  028%=      5-min Rain = 0
KST2 112207Z 17015KT 40/18 A2994 RMK A01 T04030181  RH  028%=      5-min Rain = 0
KST2 112208Z 17012KT 40/18 A2994 RMK A01 T04010179  RH  028%=      5-min Rain = 0
KST2 112209Z 16013KT 40/18 A2994 RMK A01 T03990180  RH  028%=      5-min Rain = 0
KST2 112210Z 15014KT 40/18 A2994 RMK A01 T03990180  RH  028%=      5-min Rain = 0
KST2 112211Z 16013KT 40/18 A2994 RMK A01 T03980178  RH  028%=      5-min Rain = 0
KST2 112212Z 17013KT 40/18 A2994 RMK A01 T03970176  RH  028%=      5-min Rain = 0
KST2 112213Z 17013KT 40/18 A2994 RMK A01 T03980179  RH  028%=      5-min Rain = 0
KST2 112214Z 20011KT 40/18 A2994 RMK A01 T04000179  RH  028%=      5-min Rain = 0
KST2 112215Z 20010KT 40/18 A2994 RMK A01 T04010178  RH  027%=      5-min Rain = 0
KST2 112216Z 21010KT 40/18 A2994 RMK A01 T04010180  RH  028%=      5-min Rain = 0
KST2 112217Z 21014KT 40/18 A2994 RMK A01 T04020181  RH  028%=      5-min Rain = 0
KST2 112218Z 20013KT 40/18 A2994 RMK A01 T04020178  RH  027%=      5-min Rain = 0
KST2 112219Z 20013KT 40/18 A2994 RMK A01 T04010177  RH  027%=      5-min Rain = 0
KST2 112220Z 20013KT 40/18 A2994 RMK A01 T04000178  RH  028%=      5-min Rain = 0
KST2 112221Z 21012KT 40/18 A2994 RMK A01 T04000178  RH  028%=      5-min Rain = 0
KST2 112222Z 21009KT 40/18 A2994 RMK A01 T03990179  RH  028%=      5-min Rain = 0
KST2 112223Z 19008KT 40/18 A2994 RMK A01 T03990178  RH  028%=      5-min Rain = 0
KST2 112224Z 18009KT 40/18 A2994 RMK A01 T04000175  RH  027%=      5-min Rain = 0
KST2 112225Z 17012KT 40/17 A2994 RMK A01 T04000174  RH  027%=      5-min Rain = 0
KST2 112226Z 17012KT 40/18 A2994 RMK A01 T04010177  RH  027%=      5-min Rain = 0
KST2 112227Z 17012KT 40/18 A2994 RMK A01 T04010178  RH  027%=      5-min Rain = 0
KST2 112228Z 17013KT 40/18 A2994 RMK A01 T04010179  RH  028%=      5-min Rain = 0
KST2 112229Z 19011KT 40/18 A2994 RMK A01 T04010180  RH  028%=      5-min Rain = 0
KST2 112230Z 18011KT 40/18 A2994 RMK A01 T04020179  RH  028%=      5-min Rain = 0
KST2 112231Z 16011KT 40/18 A2994 RMK A01 T04010180  RH  028%=      5-min Rain = 0
KST2 112232Z 17010KT 40/18 A2994 RMK A01 T04020180  RH  028%=      5-min Rain = 0
KST2 112233Z 18012KT 40/18 A2993 RMK A01 T04030179  RH  027%=      5-min Rain = 0
KST2 112234Z 19010KT 40/18 A2993 RMK A01 T04020180  RH  028%=      5-min Rain = 0
KST2 112235Z 19010KT 40/18 A2993 RMK A01 T04030177  RH  027%=      5-min Rain = 0
KST2 112236Z 20009KT 40/18 A2993 RMK A01 T04000177  RH  028%=      5-min Rain = 0
KST2 112237Z 18012KT 40/18 A2993 RMK A01 T03990176  RH  027%=      5-min Rain = 0
KST2 112238Z 18013KT 40/17 A2993 RMK A01 T03990173  RH  027%=      5-min Rain = 0
KST2 112239Z 18013KT 40/17 A2993 RMK A01 T03990172  RH  027%=      5-min Rain = 0
KST2 112240Z 19012KT 40/17 A2993 RMK A01 T04000174  RH  027%=      5-min Rain = 0
KST2 112241Z 19010KT 40/18 A2993 RMK A01 T04000175  RH  027%=      5-min Rain = 0
KST2 112242Z 19008KT 40/18 A2993 RMK A01 T03990176  RH  027%=      5-min Rain = 0
KST2 112243Z 17008KT 40/17 A2993 RMK A01 T03990174  RH  027%=      5-min Rain = 0
KST2 112244Z 17011KT 40/18 A2993 RMK A01 T04000175  RH  027%=      5-min Rain = 0
KST2 112245Z 18011KT 40/18 A2993 RMK A01 T04020175  RH  027%=      5-min Rain = 0
KST2 112246Z 18009KT 40/17 A2993 RMK A01 T04020171  RH  026%=      5-min Rain = 0
KST2 112247Z 19010KT 40/17 A2992 RMK A01 T04010174  RH  027%=      5-min Rain = 0
KST2 112248Z 19010G15KT 40/17 A2992 RMK A01 T03990174  RH  027%=      5-min Rain = 0
KST2 112249Z 18012KT 40/18 A2992 RMK A01 T04000178  RH  028%=      5-min Rain = 0
KST2 112250Z 17011KT 40/18 A2992 RMK A01 T03990177  RH  028%=      5-min Rain = 0
KST2 112251Z 18010KT 40/18 A2992 RMK A01 T03990179  RH  028%=      5-min Rain = 0
KST2 112252Z 18010KT 40/18 A2992 RMK A01 T04000175  RH  027%=      5-min Rain = 0
KST2 112253Z 17012G17KT 40/18 A2992 RMK A01 T03970175  RH  028%=      5-min Rain = 0
KST2 112254Z 19014KT 40/18 A2992 RMK A01 T03970177  RH  028%=      5-min Rain = 0
KST2 112255Z 20010KT 40/18 A2992 RMK A01 T03990181  RH  028%=      5-min Rain = 0
KST2 112256Z 17011KT 40/18 A2992 RMK A01 T04000180  RH  028%=      5-min Rain = 0
KST2 112257Z 18011KT 40/18 A2992 RMK A01 T04010180  RH  028%=      5-min Rain = 0
KST2 112258Z 17011KT 40/18 A2992 RMK A01 T04010179  RH  028%=      5-min Rain = 0
KST2 112259Z 17012KT 40/18 A2992 RMK A01 T04000178  RH  028%=      5-min Rain = 0
KST2 112300Z 17011KT 40/18 A2992 RMK A01 T03990177  RH  027%=      5-min Rain = 0
KST2 112301Z 19011KT 40/18 A2992 RMK A01 T03980179  RH  028%=      5-min Rain = 0
KST2 112302Z 18013KT 40/18 A2992 RMK A01 T03980175  RH  027%=      5-min Rain = 0
KST2 112303Z 19010KT 40/18 A2992 RMK A01 T03970175  RH  027%=      5-min Rain = 0
KST2 112304Z 19009KT 40/18 A2992 RMK A01 T03970177  RH  028%=      5-min Rain = 0
KST2 112305Z 18012KT 40/17 A2992 RMK A01 T03970173  RH  027%=      5-min Rain = 0
KST2 112306Z 19011KT 40/17 A2992 RMK A01 T03970174  RH  027%=      5-min Rain = 0
KST2 112307Z 17012KT 40/18 A2992 RMK A01 T03990176  RH  027%=      5-min Rain = 0
KST2 112308Z 17010KT 40/17 A2992 RMK A01 T03990173  RH  027%=      5-min Rain = 0
KST2 112309Z 16010KT 40/18 A2992 RMK A01 T03980175  RH  027%=      5-min Rain = 0
KST2 112310Z 16012KT 40/18 A2992 RMK A01 T03980175  RH  027%=      5-min Rain = 0
KST2 112311Z 17010KT 40/17 A2992 RMK A01 T03980173  RH  027%=      5-min Rain = 0
KST2 112312Z 16010KT 40/18 A2992 RMK A01 T03970175  RH  027%=      5-min Rain = 0
KST2 112313Z 17009KT 40/17 A2992 RMK A01 T03970173  RH  027%=      5-min Rain = 0
KST2 112314Z 18008KT 40/18 A2992 RMK A01 T03970178  RH  028%=      5-min Rain = 0
KST2 112315Z 18010KT 40/18 A2992 RMK A01 T03980177  RH  028%=      5-min Rain = 0
KST2 112316Z 17011KT 40/18 A2992 RMK A01 T03980177  RH  028%=      5-min Rain = 0
KST2 112317Z 16011KT 40/18 A2991 RMK A01 T03990181  RH  028%=      5-min Rain = 0
KST2 112318Z 16014KT 40/18 A2991 RMK A01 T04000178  RH  028%=      5-min Rain = 0
KST2 112319Z 16014KT 40/18 A2991 RMK A01 T03980176  RH  027%=      5-min Rain = 0
KST2 112320Z 15012KT 40/18 A2991 RMK A01 T03970177  RH  028%=      5-min Rain = 0
KST2 112321Z 16012KT 40/18 A2991 RMK A01 T03970176  RH  028%=      5-min Rain = 0
KST2 112322Z 17012KT 40/18 A2991 RMK A01 T03970179  RH  028%=      5-min Rain = 0
KST2 112323Z 17012KT 40/17 A2991 RMK A01 T03970174  RH  027%=      5-min Rain = 0
KST2 112324Z 17011KT 40/17 A2991 RMK A01 T03970173  RH  027%=      5-min Rain = 0
KST2 112325Z 18011KT 40/17 A2991 RMK A01 T03970172  RH  027%=      5-min Rain = 0
KST2 112326Z 19011KT 40/18 A2991 RMK A01 T03970175  RH  027%=      5-min Rain = 0
KST2 112327Z 19010KT 40/17 A2991 RMK A01 T03970173  RH  027%=      5-min Rain = 0
KST2 112328Z 18014KT 40/17 A2991 RMK A01 T03960173  RH  027%=      5-min Rain = 0
KST2 112329Z 18011KT 40/17 A2991 RMK A01 T03960170  RH  027%=      5-min Rain = 0
KST2 112330Z 17009KT 40/17 A2991 RMK A01 T03960171  RH  027%=      5-min Rain = 0
KST2 112331Z 16009KT 40/17 A2991 RMK A01 T03970170  RH  027%=      5-min Rain = 0
KST2 112332Z 17010KT 40/17 A2991 RMK A01 T03970171  RH  027%=      5-min Rain = 0
KST2 112333Z 18011G17KT 40/17 A2991 RMK A01 T03970172  RH  027%=      5-min Rain = 0
KST2 112334Z 18014KT 40/17 A2991 RMK A01 T03970170  RH  027%=      5-min Rain = 0
KST2 112335Z 17011KT 40/17 A2991 RMK A01 T03970170  RH  027%=      5-min Rain = 0
KST2 112336Z 17011KT 40/17 A2991 RMK A01 T03970170  RH  027%=      5-min Rain = 0
KST2 112337Z 17010KT 40/17 A2991 RMK A01 T03970170  RH  027%=      5-min Rain = 0
KST2 112338Z 17010KT 40/17 A2991 RMK A01 T03970171  RH  027%=      5-min Rain = 0
KST2 112339Z 16012KT 40/17 A2991 RMK A01 T03970171  RH  027%=      5-min Rain = 0
KST2 112340Z 16009KT 40/17 A2991 RMK A01 T03960170  RH  027%=      5-min Rain = 0
KST2 112341Z 16011KT 40/17 A2991 RMK A01 T03960170  RH  027%=      5-min Rain = 0
KST2 112342Z 17012KT 40/17 A2991 RMK A01 T03970172  RH  027%=      5-min Rain = 0
KST2 112343Z 17011KT 40/17 A2991 RMK A01 T03960172  RH  027%=      5-min Rain = 0
KST2 112344Z 18010KT 40/17 A2991 RMK A01 T03950173  RH  027%=      5-min Rain = 0
KST2 112345Z 17011KT 40/18 A2991 RMK A01 T03950176  RH  028%=      5-min Rain = 0
KST2 112346Z 16010KT 40/18 A2991 RMK A01 T03960180  RH  029%=      5-min Rain = 0
KST2 112347Z 16010KT 40/18 A2991 RMK A01 T03970182  RH  029%=      5-min Rain = 0
KST2 112348Z 16011KT 40/18 A2991 RMK A01 T03970179  RH  028%=      5-min Rain = 0
KST2 112349Z 18011KT 40/18 A2991 RMK A01 T03960180  RH  029%=      5-min Rain = 0
KST2 112350Z 18012KT 40/18 A2991 RMK A01 T03960178  RH  028%=      5-min Rain = 0
KST2 112351Z 18013KT 40/18 A2991 RMK A01 T03960176  RH  028%=      5-min Rain = 0
KST2 112352Z 18010KT 40/18 A2991 RMK A01 T03950176  RH  028%=      5-min Rain = 0
KST2 112353Z 19010KT 39/18 A2991 RMK A01 T03940178  RH  028%=      5-min Rain = 0
KST2 112354Z 18009KT 39/18 A2991 RMK A01 T03940176  RH  028%=      5-min Rain = 0
KST2 112355Z 17011KT 39/18 A2991 RMK A01 T03940175  RH  028%=      5-min Rain = 0
KST2 112356Z 17014KT 39/18 A2991 RMK A01 T03940175  RH  028%=      5-min Rain = 0
KST2 112357Z 17015KT 39/17 A2991 RMK A01 T03930174  RH  028%=      5-min Rain = 0
KST2 112358Z 18013KT 39/17 A2991 RMK A01 T03930170  RH  027%=      5-min Rain = 0
KST2 112359Z 18009KT 39/17 A2991 RMK A01 T03930172  RH  027%=      5-min Rain = 0
KST2 120000Z 19011KT 39/17 A2991 RMK A01 T03940172  RH  027%=      5-min Rain = 0
KST2 120001Z 18011KT 39/17 A2991 RMK A01 T03940173  RH  028%=      5-min Rain = 0
KST2 120002Z 17011KT 39/18 A2991 RMK A01 T03930177  RH  028%=      5-min Rain = 0
KST2 120003Z 18011KT 39/17 A2991 RMK A01 T03930172  RH  028%=      5-min Rain = 0
KST2 120004Z 18008KT 39/17 A2991 RMK A01 T03930173  RH  028%=      5-min Rain = 0
KST2 120005Z 19010KT 39/18 A2991 RMK A01 T03930179  RH  029%=      5-min Rain = 0
KST2 120006Z 18010KT 39/18 A2991 RMK A01 T03930183  RH  030%=      5-min Rain = 0
KST2 120007Z 18011KT 39/18 A2991 RMK A01 T03930183  RH  029%=      5-min Rain = 0
KST2 120008Z 18013KT 39/19 A2991 RMK A01 T03930185  RH  030%=      5-min Rain = 0
KST2 120009Z 18012KT 39/18 A2991 RMK A01 T03920184  RH  030%=      5-min Rain = 0
KST2 120010Z 17011KT 39/19 A2991 RMK A01 T03910185  RH  030%=      5-min Rain = 0
KST2 120011Z 16014KT 39/18 A2991 RMK A01 T03910182  RH  030%=      5-min Rain = 0
KST2 120012Z 18014KT 39/18 A2991 RMK A01 T03910181  RH  030%=      5-min Rain = 0
KST2 120013Z 18015KT 39/18 A2991 RMK A01 T03900182  RH  030%=      5-min Rain = 0
KST2 120014Z 17015KT 39/19 A2991 RMK A01 T03890185  RH  030%=      5-min Rain = 0
KST2 120015Z 18013KT 39/18 A2991 RMK A01 T03880184  RH  031%=      5-min Rain = 0
KST2 120016Z 18011KT 39/19 A2991 RMK A01 T03880186  RH  031%=      5-min Rain = 0
KST2 120017Z 18011KT 39/19 A2991 RMK A01 T03880188  RH  031%=      5-min Rain = 0
KST2 120018Z 18013KT 39/19 A2991 RMK A01 T03880189  RH  032%=      5-min Rain = 0
KST2 120019Z 18013KT 39/19 A2991 RMK A01 T03880189  RH  032%=      5-min Rain = 0
KST2 120020Z 18012KT 39/19 A2991 RMK A01 T03880190  RH  032%=      5-min Rain = 0
KST2 120021Z 18011KT 39/19 A2991 RMK A01 T03880191  RH  032%=      5-min Rain = 0
KST2 120022Z 17014KT 39/19 A2991 RMK A01 T03880191  RH  032%=      5-min Rain = 0
KST2 120023Z 17014KT 39/19 A2991 RMK A01 T03870191  RH  032%=      5-min Rain = 0
KST2 120024Z 17013KT 39/19 A2991 RMK A01 T03860191  RH  032%=      5-min Rain = 0
KST2 120025Z 17014KT 39/19 A2991 RMK A01 T03860192  RH  032%=      5-min Rain = 0
KST2 120026Z 17012KT 39/19 A2991 RMK A01 T03860192  RH  032%=      5-min Rain = 0
KST2 120027Z 17011KT 39/19 A2991 RMK A01 T03860194  RH  033%=      5-min Rain = 0
KST2 120028Z 17014KT 39/19 A2991 RMK A01 T03850192  RH  033%=      5-min Rain = 0
KST2 120029Z 17011KT 39/19 A2991 RMK A01 T03850191  RH  032%=      5-min Rain = 0
KST2 120030Z 18011KT 39/19 A2991 RMK A01 T03850193  RH  033%=      5-min Rain = 0
KST2 120031Z 18011KT 39/19 A2991 RMK A01 T03850192  RH  033%=      5-min Rain = 0
KST2 120032Z 17013KT 39/19 A2991 RMK A01 T03860193  RH  033%=      5-min Rain = 0
KST2 120033Z 17014KT 39/19 A2991 RMK A01 T03850192  RH  033%=      5-min Rain = 0
KST2 120034Z 17013KT 39/19 A2991 RMK A01 T03850191  RH  032%=      5-min Rain = 0
KST2 120035Z 17013KT 39/19 A2991 RMK A01 T03850190  RH  032%=      5-min Rain = 0
KST2 120036Z 16011KT 39/19 A2991 RMK A01 T03850192  RH  033%=      5-min Rain = 0
KST2 120037Z 17012KT 38/19 A2991 RMK A01 T03840191  RH  033%=      5-min Rain = 0
KST2 120038Z 17013KT 38/19 A2991 RMK A01 T03840191  RH  033%=      5-min Rain = 0
KST2 120039Z 17011KT 38/19 A2991 RMK A01 T03840191  RH  033%=      5-min Rain = 0
KST2 120040Z 17013KT 38/19 A2991 RMK A01 T03840192  RH  033%=      5-min Rain = 0
KST2 120041Z 17013KT 38/19 A2991 RMK A01 T03830190  RH  033%=      5-min Rain = 0
KST2 120042Z 17012KT 38/19 A2991 RMK A01 T03830190  RH  033%=      5-min Rain = 0
KST2 120043Z 17012KT 38/19 A2991 RMK A01 T03830191  RH  033%=      5-min Rain = 0
KST2 120044Z 17010KT 38/19 A2991 RMK A01 T03830191  RH  033%=      5-min Rain = 0
KST2 120045Z 17012KT 38/19 A2991 RMK A01 T03820190  RH  033%=      5-min Rain = 0
KST2 120046Z 17010KT 38/19 A2991 RMK A01 T03820190  RH  033%=      5-min Rain = 0
KST2 120047Z 17011KT 38/19 A2991 RMK A01 T03830191  RH  033%=      5-min Rain = 0
KST2 120048Z 17011KT 38/19 A2991 RMK A01 T03820190  RH  033%=      5-min Rain = 0
KST2 120049Z 18012KT 38/19 A2991 RMK A01 T03820190  RH  033%=      5-min Rain = 0
KST2 120050Z 17012KT 38/19 A2991 RMK A01 T03820189  RH  033%=      5-min Rain = 0
KST2 120051Z 17010KT 38/19 A2991 RMK A01 T03820190  RH  033%=      5-min Rain = 0
KST2 120052Z 17012KT 38/19 A2991 RMK A01 T03810190  RH  033%=      5-min Rain = 0
KST2 120053Z 17012KT 38/19 A2991 RMK A01 T03810187  RH  032%=      5-min Rain = 0
KST2 120054Z 16012KT 38/19 A2991 RMK A01 T03810186  RH  032%=      5-min Rain = 0
KST2 120055Z 17013KT 38/19 A2991 RMK A01 T03810186  RH  032%=      5-min Rain = 0
KST2 120056Z 17012KT 38/19 A2991 RMK A01 T03810186  RH  032%=      5-min Rain = 0
KST2 120057Z 17012KT 38/19 A2991 RMK A01 T03800185  RH  032%=      5-min Rain = 0
KST2 120058Z 17011KT 38/19 A2991 RMK A01 T03800185  RH  032%=      5-min Rain = 0
KST2 120059Z 17010KT 38/19 A2991 RMK A01 T03800185  RH  032%=      5-min Rain = 0
KST2 120100Z 17011KT 38/19 A2991 RMK A01 T03790185  RH  032%=      5-min Rain = 0
KST2 120101Z 17010KT 38/19 A2991 RMK A01 T03790186  RH  032%=      5-min Rain = 0
KST2 120102Z 17009KT 38/19 A2991 RMK A01 T03780186  RH  033%=      5-min Rain = 0
KST2 120103Z 17010KT 38/19 A2991 RMK A01 T03770186  RH  033%=      5-min Rain = 0
KST2 120104Z 17010KT 38/19 A2991 RMK A01 T03770185  RH  033%=      5-min Rain = 0
KST2 120105Z 17011KT 38/19 A2991 RMK A01 T03770185  RH  033%=      5-min Rain = 0
KST2 120106Z 17010KT 38/19 A2991 RMK A01 T03770185  RH  033%=      5-min Rain = 0
KST2 120107Z 17009KT 38/19 A2991 RMK A01 T03770186  RH  033%=      5-min Rain = 0
KST2 120108Z 17008KT 38/19 A2991 RMK A01 T03760187  RH  033%=      5-min Rain = 0
KST2 120109Z 17010KT 38/19 A2991 RMK A01 T03750187  RH  033%=      5-min Rain = 0
KST2 120110Z 17009KT 37/19 A2991 RMK A01 T03740186  RH  033%=      5-min Rain = 0
KST2 120111Z 17009KT 37/19 A2991 RMK A01 T03740187  RH  034%=      5-min Rain = 0
KST2 120112Z 17008KT 37/19 A2991 RMK A01 T03730188  RH  034%=      5-min Rain = 0
KST2 120113Z 17009KT 37/19 A2991 RMK A01 T03730187  RH  034%=      5-min Rain = 0
KST2 120114Z 17009KT 37/19 A2991 RMK A01 T03730187  RH  034%=      5-min Rain = 0
KST2 120115Z 17008KT 37/19 A2991 RMK A01 T03730187  RH  034%=      5-min Rain = 0
KST2 120116Z 17008KT 37/19 A2991 RMK A01 T03720187  RH  034%=      5-min Rain = 0
KST2 120117Z 18009KT 37/19 A2991 RMK A01 T03710187  RH  034%=      5-min Rain = 0
KST2 120118Z 17009KT 37/19 A2991 RMK A01 T03710187  RH  034%=      5-min Rain = 0
KST2 120119Z 18009KT 37/19 A2991 RMK A01 T03710188  RH  034%=      5-min Rain = 0
KST2 120120Z 17010KT 37/19 A2991 RMK A01 T03700188  RH  034%=      5-min Rain = 0
KST2 120121Z 18008KT 37/19 A2991 RMK A01 T03700187  RH  034%=      5-min Rain = 0
KST2 120122Z 17008KT 37/19 A2991 RMK A01 T03700188  RH  035%=      5-min Rain = 0
KST2 120123Z 18008KT 37/19 A2991 RMK A01 T03680188  RH  035%=      5-min Rain = 0
KST2 120124Z 17008KT 37/19 A2991 RMK A01 T03670188  RH  035%=      5-min Rain = 0
KST2 120125Z 17008KT 37/19 A2991 RMK A01 T03660188  RH  035%=      5-min Rain = 0
KST2 120126Z 18009KT 37/19 A2991 RMK A01 T03650188  RH  035%=      5-min Rain = 0
KST2 120127Z 17008KT 37/19 A2991 RMK A01 T03650188  RH  035%=      5-min Rain = 0
KST2 120128Z 17008KT 36/19 A2991 RMK A01 T03640188  RH  036%=      5-min Rain = 0
KST2 120129Z 18008KT 36/19 A2991 RMK A01 T03640188  RH  036%=      5-min Rain = 0
KST2 120130Z 17008KT 36/19 A2991 RMK A01 T03630188  RH  036%=      5-min Rain = 0
KST2 120131Z 18008KT 36/19 A2991 RMK A01 T03620188  RH  036%=      5-min Rain = 0
KST2 120132Z 18009KT 36/19 A2991 RMK A01 T03610188  RH  036%=      5-min Rain = 0
KST2 120133Z 18008KT 36/19 A2991 RMK A01 T03610189  RH  036%=      5-min Rain = 0
KST2 120134Z 17008KT 36/19 A2991 RMK A01 T03600189  RH  037%=      5-min Rain = 0
KST2 120135Z 17008KT 36/19 A2991 RMK A01 T03600189  RH  037%=      5-min Rain = 0
KST2 120136Z 18008KT 36/19 A2991 RMK A01 T03590189  RH  037%=      5-min Rain = 0
KST2 120137Z 18007KT 36/19 A2991 RMK A01 T03570189  RH  037%=      5-min Rain = 0
KST2 120138Z 18007KT 36/19 A2991 RMK A01 T03560189  RH  037%=      5-min Rain = 0
KST2 120139Z 18007KT 36/19 A2991 RMK A01 T03550189  RH  038%=      5-min Rain = 0
KST2 120140Z 18008KT 36/19 A2991 RMK A01 T03550189  RH  038%=      5-min Rain = 0
KST2 120141Z 18007KT 36/19 A2991 RMK A01 T03550189  RH  038%=      5-min Rain = 0
KST2 120142Z 18007KT 35/19 A2991 RMK A01 T03540189  RH  038%=      5-min Rain = 0
KST2 120143Z 18007KT 35/19 A2991 RMK A01 T03530189  RH  038%=      5-min Rain = 0
KST2 120144Z 18007KT 35/19 A2991 RMK A01 T03520189  RH  038%=      5-min Rain = 0
KST2 120145Z 18007KT 35/19 A2991 RMK A01 T03510189  RH  039%=      5-min Rain = 0
KST2 120146Z 18007KT 35/19 A2991 RMK A01 T03500189  RH  039%=      5-min Rain = 0
KST2 120147Z 18007KT 35/19 A2991 RMK A01 T03500189  RH  039%=      5-min Rain = 0
KST2 120148Z 18007KT 35/19 A2991 RMK A01 T03490190  RH  039%=      5-min Rain = 0
KST2 120149Z 18007KT 35/19 A2991 RMK A01 T03480190  RH  039%=      5-min Rain = 0
KST2 120150Z 18007KT 35/19 A2991 RMK A01 T03470190  RH  040%=      5-min Rain = 0
KST2 120151Z 18007KT 35/19 A2991 RMK A01 T03460190  RH  040%=      5-min Rain = 0
KST2 120152Z 17007KT 35/19 A2991 RMK A01 T03450190  RH  040%=      5-min Rain = 0
KST2 120153Z 17007KT 34/19 A2991 RMK A01 T03440190  RH  041%=      5-min Rain = 0
KST2 120154Z 17007KT 34/19 A2991 RMK A01 T03420191  RH  041%=      5-min Rain = 0
KST2 120155Z 17007KT 34/19 A2991 RMK A01 T03410191  RH  041%=      5-min Rain = 0
KST2 120156Z 17007KT 34/19 A2991 RMK A01 T03400191  RH  042%=      5-min Rain = 0
KST2 120157Z 17007KT 34/19 A2991 RMK A01 T03380191  RH  042%=      5-min Rain = 0
KST2 120158Z 17008KT 34/19 A2991 RMK A01 T03370191  RH  042%=      5-min Rain = 0
KST2 120159Z 17008KT 34/19 A2991 RMK A01 T03360191  RH  042%=      5-min Rain = 0
KST2 120200Z 17008KT 34/19 A2991 RMK A01 T03350191  RH  043%=      5-min Rain = 0
KST2 120201Z 17008KT 33/19 A299 RMK A01 T03340191  RH  043%=      5-min Rain = 0
KST2 120202Z 17008KT 33/19 A299 RMK A01 T03330191  RH  043%=      5-min Rain = 0
KST2 120203Z 17007KT 33/19 A299 RMK A01 T03330192  RH  043%=      5-min Rain = 0
KST2 120204Z 16007KT 33/19 A299 RMK A01 T03320192  RH  044%=      5-min Rain = 0
KST2 120205Z 16008KT 33/19 A299 RMK A01 T03310191  RH  044%=      5-min Rain = 0
KST2 120206Z 16008KT 33/19 A299 RMK A01 T03300191  RH  044%=      5-min Rain = 0
KST2 120207Z 16008KT 33/19 A299 RMK A01 T03290191  RH  044%=      5-min Rain = 0
KST2 120208Z 17008KT 33/19 A299 RMK A01 T03270191  RH  045%=      5-min Rain = 0
KST2 120209Z 17008KT 33/19 A299 RMK A01 T03270191  RH  045%=      5-min Rain = 0
KST2 120210Z 17008KT 33/19 A299 RMK A01 T03270191  RH  044%=      5-min Rain = 0
KST2 120211Z 17007KT 33/19 A299 RMK A01 T03280191  RH  044%=      5-min Rain = 0
KST2 120212Z 17007KT 33/19 A299 RMK A01 T03270191  RH  044%=      5-min Rain = 0
KST2 120213Z 17007KT 33/19 A299 RMK A01 T03270191  RH  045%=      5-min Rain = 0
KST2 120214Z 17007KT 33/19 A299 RMK A01 T03270191  RH  045%=      5-min Rain = 0
KST2 120215Z 16007KT 33/19 A299 RMK A01 T03260191  RH  045%=      5-min Rain = 0
KST2 120216Z 16006KT 33/19 A299 RMK A01 T03260190  RH  045%=      5-min Rain = 0
KST2 120217Z 16005KT 33/19 A299 RMK A01 T03260190  RH  045%=      5-min Rain = 0
KST2 120218Z 16005KT 33/19 A2991 RMK A01 T03270191  RH  045%=      5-min Rain = 0
KST2 120219Z 16005KT 33/19 A2991 RMK A01 T03260190  RH  045%=      5-min Rain = 0
KST2 120220Z 16005KT 33/19 A2991 RMK A01 T03260190  RH  045%=      5-min Rain = 0
KST2 120221Z 16005KT 33/19 A2991 RMK A01 T03260190  RH  045%=      5-min Rain = 0
KST2 120222Z 16005KT 33/19 A2991 RMK A01 T03260190  RH  045%=      5-min Rain = 0
KST2 120223Z 16005KT 33/19 A2991 RMK A01 T03250190  RH  045%=      5-min Rain = 0
KST2 120224Z 16005KT 33/19 A2991 RMK A01 T03250190  RH  045%=      5-min Rain = 0
KST2 120225Z 16005KT 33/19 A2991 RMK A01 T03250191  RH  045%=      5-min Rain = 0
KST2 120226Z 16005KT 33/19 A2991 RMK A01 T03250190  RH  045%=      5-min Rain = 0
KST2 120227Z 16005KT 32/19 A2991 RMK A01 T03240191  RH  045%=      5-min Rain = 0
KST2 120228Z 16005KT 32/19 A2991 RMK A01 T03240191  RH  045%=      5-min Rain = 0
KST2 120229Z 16006KT 32/19 A2991 RMK A01 T03230191  RH  046%=      5-min Rain = 0
KST2 120230Z 16006KT 32/19 A2991 RMK A01 T03230191  RH  046%=      5-min Rain = 0
KST2 120231Z 17006KT 32/19 A2991 RMK A01 T03220191  RH  046%=      5-min Rain = 0
KST2 120232Z 17006KT 32/19 A2991 RMK A01 T03210191  RH  046%=      5-min Rain = 0
KST2 120233Z 17006KT 32/19 A2991 RMK A01 T03210192  RH  046%=      5-min Rain = 0
KST2 120234Z 17006KT 32/19 A299 RMK A01 T03200192  RH  047%=      5-min Rain = 0
KST2 120235Z 17006KT 32/19 A299 RMK A01 T03190192  RH  047%=      5-min Rain = 0
KST2 120236Z 17006KT 32/19 A299 RMK A01 T03180192  RH  047%=      5-min Rain = 0
KST2 120237Z 17006KT 32/19 A299 RMK A01 T03180192  RH  047%=      5-min Rain = 0
KST2 120238Z 17006KT 32/19 A299 RMK A01 T03180192  RH  047%=      5-min Rain = 0
KST2 120239Z 17007KT 32/19 A299 RMK A01 T03170192  RH  048%=      5-min Rain = 0
KST2 120240Z 17007KT 32/19 A299 RMK A01 T03160192  RH  048%=      5-min Rain = 0
KST2 120241Z 17007KT 32/19 A299 RMK A01 T03150192  RH  048%=      5-min Rain = 0
KST2 120242Z 17007KT 32/19 A299 RMK A01 T03150192  RH  048%=      5-min Rain = 0
KST2 120243Z 17007KT 32/19 A299 RMK A01 T03150193  RH  048%=      5-min Rain = 0
KST2 120244Z 17007KT 31/19 A299 RMK A01 T03140193  RH  048%=      5-min Rain = 0
KST2 120245Z 17007KT 31/19 A2991 RMK A01 T03140192  RH  049%=      5-min Rain = 0
KST2 120246Z 17006KT 31/19 A2991 RMK A01 T03130193  RH  049%=      5-min Rain = 0
KST2 120247Z 17006KT 31/19 A2991 RMK A01 T03130193  RH  049%=      5-min Rain = 0
KST2 120248Z 17006KT 31/19 A2991 RMK A01 T03120192  RH  049%=      5-min Rain = 0
KST2 120249Z 17006KT 31/19 A2991 RMK A01 T03120192  RH  049%=      5-min Rain = 0
KST2 120250Z 17006KT 31/19 A2991 RMK A01 T03110192  RH  049%=      5-min Rain = 0
KST2 120251Z 17006KT 31/19 A2991 RMK A01 T03110192  RH  049%=      5-min Rain = 0
KST2 120252Z 17006KT 31/19 A2991 RMK A01 T03110192  RH  049%=      5-min Rain = 0
KST2 120253Z 17006KT 31/19 A2991 RMK A01 T03120192  RH  049%=      5-min Rain = 0
KST2 120254Z 17006KT 31/19 A2991 RMK A01 T03120192  RH  049%=      5-min Rain = 0
KST2 120255Z 17006KT 31/19 A2991 RMK A01 T03120192  RH  049%=      5-min Rain = 0
KST2 120256Z 17006KT 31/19 A2991 RMK A01 T03110192  RH  049%=      5-min Rain = 0
KST2 120257Z 17006KT 31/19 A2991 RMK A01 T03110192  RH  049%=      5-min Rain = 0
KST2 120258Z 17006KT 31/19 A2991 RMK A01 T03110192  RH  049%=      5-min Rain = 0
KST2 120259Z 17006KT 31/19 A2991 RMK A01 T03100192  RH  049%=      5-min Rain = 0
KST2 120300Z 17006KT 31/19 A2991 RMK A01 T03100192  RH  049%=      5-min Rain = 0
KST2 120301Z 16005KT 31/19 A2991 RMK A01 T03090192  RH  050%=      5-min Rain = 0
KST2 120302Z 16005KT 31/19 A2991 RMK A01 T03090192  RH  050%=      5-min Rain = 0
KST2 120303Z 17005KT 31/19 A2991 RMK A01 T03080192  RH  050%=      5-min Rain = 0
KST2 120304Z 16005KT 31/19 A2991 RMK A01 T03070191  RH  050%=      5-min Rain = 0
KST2 120305Z 16005KT 31/19 A2991 RMK A01 T03070191  RH  050%=      5-min Rain = 0
KST2 120306Z 16005KT 31/19 A2991 RMK A01 T03070191  RH  050%=      5-min Rain = 0
KST2 120307Z 16005KT 31/19 A2991 RMK A01 T03070191  RH  050%=      5-min Rain = 0
KST2 120308Z 16005KT 31/19 A2991 RMK A01 T03060191  RH  050%=      5-min Rain = 0
KST2 120309Z 16005KT 31/19 A2991 RMK A01 T03060191  RH  050%=      5-min Rain = 0
KST2 120310Z 16005KT 31/19 A2991 RMK A01 T03050191  RH  051%=      5-min Rain = 0
KST2 120311Z 16006KT 31/19 A2991 RMK A01 T03060192  RH  051%=      5-min Rain = 0
KST2 120312Z 16006KT 31/19 A2991 RMK A01 T03060192  RH  051%=      5-min Rain = 0
KST2 120313Z 16006KT 31/19 A2991 RMK A01 T03060192  RH  051%=      5-min Rain = 0
KST2 120314Z 16006KT 31/19 A2991 RMK A01 T03060192  RH  051%=      5-min Rain = 0
KST2 120315Z 16006KT 31/19 A2991 RMK A01 T03060192  RH  051%=      5-min Rain = 0
KST2 120316Z 16006KT 31/19 A2991 RMK A01 T03060192  RH  051%=      5-min Rain = 0
KST2 120317Z 16006KT 31/19 A2991 RMK A01 T03060193  RH  051%=      5-min Rain = 0
KST2 120318Z 16006KT 31/19 A2991 RMK A01 T03050193  RH  051%=      5-min Rain = 0
KST2 120319Z 16006KT 31/19 A2991 RMK A01 T03050192  RH  051%=      5-min Rain = 0
KST2 120320Z 16006KT 31/19 A2991 RMK A01 T03050193  RH  051%=      5-min Rain = 0
KST2 120321Z 16006KT 30/19 A2992 RMK A01 T03040193  RH  051%=      5-min Rain = 0
KST2 120322Z 16006KT 30/19 A2992 RMK A01 T03040193  RH  051%=      5-min Rain = 0
KST2 120323Z 16006KT 30/19 A2991 RMK A01 T03040193  RH  051%=      5-min Rain = 0
KST2 120324Z 17006KT 30/19 A2992 RMK A01 T03040193  RH  051%=      5-min Rain = 0
KST2 120325Z 17006KT 30/19 A2992 RMK A01 T03040193  RH  052%=      5-min Rain = 0
KST2 120326Z 17006KT 30/19 A2992 RMK A01 T03030193  RH  052%=      5-min Rain = 0
KST2 120327Z 17006KT 30/19 A2992 RMK A01 T03030193  RH  052%=      5-min Rain = 0
KST2 120328Z 17006KT 30/19 A2992 RMK A01 T03030193  RH  052%=      5-min Rain = 0
KST2 120329Z 17006KT 30/19 A2992 RMK A01 T03020193  RH  052%=      5-min Rain = 0
KST2 120330Z 17006KT 30/19 A2992 RMK A01 T03020193  RH  052%=      5-min Rain = 0
KST2 120331Z 17006KT 30/19 A2992 RMK A01 T03020193  RH  052%=      5-min Rain = 0
KST2 120332Z 17006KT 30/19 A2992 RMK A01 T03020193  RH  052%=      5-min Rain = 0
KST2 120333Z 17006KT 30/19 A2992 RMK A01 T03020193  RH  052%=      5-min Rain = 0
KST2 120334Z 17006KT 30/19 A2992 RMK A01 T03020192  RH  052%=      5-min Rain = 0
KST2 120335Z 17006KT 30/19 A2992 RMK A01 T03020192  RH  052%=      5-min Rain = 0
KST2 120336Z 17006KT 30/19 A2992 RMK A01 T03020192  RH  052%=      5-min Rain = 0
KST2 120337Z 16006KT 30/19 A2992 RMK A01 T03020192  RH  052%=      5-min Rain = 0
KST2 120338Z 16006KT 30/19 A2992 RMK A01 T03020193  RH  052%=      5-min Rain = 0
KST2 120339Z 16006KT 30/19 A2992 RMK A01 T03020193  RH  052%=      5-min Rain = 0
KST2 120340Z 17006KT 30/19 A2992 RMK A01 T03010193  RH  052%=      5-min Rain = 0
KST2 120341Z 17006KT 30/19 A2992 RMK A01 T03010193  RH  052%=      5-min Rain = 0
KST2 120342Z 17006KT 30/19 A2992 RMK A01 T03000193  RH  052%=      5-min Rain = 0
KST2 120343Z 17006KT 30/19 A2992 RMK A01 T03000193  RH  053%=      5-min Rain = 0
KST2 120344Z 17006KT 30/19 A2992 RMK A01 T03000193  RH  053%=      5-min Rain = 0
KST2 120345Z 17006KT 30/19 A2992 RMK A01 T03000193  RH  053%=      5-min Rain = 0
KST2 120346Z 17006KT 30/19 A2992 RMK A01 T02990193  RH  053%=      5-min Rain = 0
KST2 120347Z 17007KT 30/19 A2992 RMK A01 T02990193  RH  053%=      5-min Rain = 0
KST2 120348Z 17007KT 30/19 A2992 RMK A01 T02990194  RH  053%=      5-min Rain = 0
KST2 120349Z 17007KT 30/19 A2992 RMK A01 T02980193  RH  053%=      5-min Rain = 0
KST2 120350Z 17007KT 30/19 A2992 RMK A01 T02980193  RH  053%=      5-min Rain = 0
KST2 120351Z 17007KT 30/19 A2992 RMK A01 T02980193  RH  053%=      5-min Rain = 0
KST2 120352Z 17007KT 30/19 A2992 RMK A01 T02980193  RH  053%=      5-min Rain = 0
KST2 120353Z 17007KT 30/19 A2992 RMK A01 T02990192  RH  053%=      5-min Rain = 0
KST2 120354Z 17008KT 30/19 A2992 RMK A01 T03000192  RH  053%=      5-min Rain = 0
KST2 120355Z 17008KT 30/19 A2992 RMK A01 T03010193  RH  052%=      5-min Rain = 0
KST2 120356Z 17008KT 30/19 A2992 RMK A01 T03010192  RH  052%=      5-min Rain = 0
KST2 120357Z 17008KT 30/19 A2992 RMK A01 T03010192  RH  052%=      5-min Rain = 0
KST2 120358Z 17008KT 30/19 A2992 RMK A01 T03020192  RH  052%=      5-min Rain = 0
KST2 120359Z 17008KT 30/19 A2992 RMK A01 T03020191  RH  052%=      5-min Rain = 0
KST2 120400Z 17008KT 30/19 A2992 RMK A01 T03030191  RH  051%=      5-min Rain = 0
KST2 120401Z 17008KT 30/19 A2992 RMK A01 T03030191  RH  051%=      5-min Rain = 0
KST2 120402Z 17008KT 30/19 A2992 RMK A01 T03030191  RH  051%=      5-min Rain = 0
KST2 120403Z 17008KT 30/19 A2992 RMK A01 T03030191  RH  051%=      5-min Rain = 0
KST2 120404Z 16007KT 30/19 A2992 RMK A01 T03030191  RH  051%=      5-min Rain = 0
KST2 120405Z 16007KT 30/19 A2992 RMK A01 T03030190  RH  051%=      5-min Rain = 0
KST2 120406Z 16007KT 30/19 A2992 RMK A01 T03040190  RH  051%=      5-min Rain = 0
KST2 120407Z 17007KT 30/19 A2992 RMK A01 T03040190  RH  051%=      5-min Rain = 0
KST2 120408Z 17007KT 30/19 A2992 RMK A01 T03040190  RH  051%=      5-min Rain = 0
KST2 120409Z 17008KT 30/19 A2992 RMK A01 T03040191  RH  051%=      5-min Rain = 0
KST2 120410Z 17008KT 30/19 A2992 RMK A01 T03040191  RH  051%=      5-min Rain = 0
KST2 120411Z 17008KT 30/19 A2992 RMK A01 T03030190  RH  051%=      5-min Rain = 0
KST2 120412Z 17008KT 30/19 A2992 RMK A01 T03030190  RH  051%=      5-min Rain = 0
KST2 120413Z 17009KT 30/19 A2992 RMK A01 T03030190  RH  051%=      5-min Rain = 0
KST2 120414Z 17008KT 30/19 A2992 RMK A01 T03030190  RH  051%=      5-min Rain = 0
KST2 120415Z 17008KT 30/19 A2992 RMK A01 T03030190  RH  051%=      5-min Rain = 0
KST2 120416Z 17008KT 30/19 A2992 RMK A01 T03030190  RH  051%=      5-min Rain = 0
KST2 120417Z 17008KT 30/19 A2992 RMK A01 T03040190  RH  051%=      5-min Rain = 0
KST2 120418Z 17008KT 30/19 A2992 RMK A01 T03040189  RH  050%=      5-min Rain = 0
KST2 120419Z 17008KT 31/19 A2992 RMK A01 T03050189  RH  050%=      5-min Rain = 0
KST2 120420Z 17008KT 31/19 A2992 RMK A01 T03050189  RH  050%=      5-min Rain = 0
KST2 120421Z 17008KT 31/19 A2992 RMK A01 T03050189  RH  050%=      5-min Rain = 0
KST2 120422Z 17008KT 31/19 A2992 RMK A01 T03050189  RH  050%=      5-min Rain = 0
KST2 120423Z 17008KT 31/19 A2992 RMK A01 T03050189  RH  050%=      5-min Rain = 0
KST2 120424Z 17008KT 31/19 A2992 RMK A01 T03050189  RH  050%=      5-min Rain = 0
KST2 120425Z 17007KT 31/19 A2992 RMK A01 T03050189  RH  050%=      5-min Rain = 0
KST2 120426Z 17007KT 31/19 A2992 RMK A01 T03050189  RH  050%=      5-min Rain = 0
KST2 120427Z 17008KT 30/19 A2992 RMK A01 T03040189  RH  050%=      5-min Rain = 0
KST2 120428Z 17008KT 30/19 A2992 RMK A01 T03040189  RH  050%=      5-min Rain = 0
KST2 120429Z 17008KT 30/19 A2992 RMK A01 T03040188  RH  050%=      5-min Rain = 0
KST2 120430Z 17008KT 30/19 A2992 RMK A01 T03030188  RH  050%=      5-min Rain = 0
KST2 120431Z 17008KT 30/19 A2992 RMK A01 T03030188  RH  050%=      5-min Rain = 0
KST2 120432Z 17008KT 30/19 A2992 RMK A01 T03030188  RH  050%=      5-min Rain = 0
KST2 120433Z 17008KT 30/19 A2992 RMK A01 T03030188  RH  050%=      5-min Rain = 0
KST2 120434Z 17008KT 30/19 A2992 RMK A01 T03030188  RH  050%=      5-min Rain = 0
KST2 120435Z 17008KT 30/19 A2992 RMK A01 T03030188  RH  050%=      5-min Rain = 0
KST2 120436Z 17008KT 30/19 A2992 RMK A01 T03030188  RH  050%=      5-min Rain = 0
KST2 120437Z 17008KT 30/19 A2992 RMK A01 T03030188  RH  050%=      5-min Rain = 0
KST2 120438Z 17008KT 30/19 A2992 RMK A01 T03030188  RH  050%=      5-min Rain = 0
KST2 120439Z 17008KT 30/19 A2992 RMK A01 T03020188  RH  050%=      5-min Rain = 0
KST2 120440Z 17008KT 30/19 A2992 RMK A01 T03020188  RH  050%=      5-min Rain = 0
KST2 120441Z 17008KT 30/19 A2992 RMK A01 T03020188  RH  051%=      5-min Rain = 0
KST2 120442Z 17009KT 30/19 A2992 RMK A01 T03010188  RH  051%=      5-min Rain = 0
KST2 120443Z 17009KT 30/19 A2992 RMK A01 T03020188  RH  051%=      5-min Rain = 0
KST2 120444Z 17009KT 30/19 A2992 RMK A01 T03010187  RH  050%=      5-min Rain = 0
KST2 120445Z 17009KT 30/19 A2992 RMK A01 T03020187  RH  050%=      5-min Rain = 0
KST2 120446Z 17009KT 30/19 A2992 RMK A01 T03020188  RH  050%=      5-min Rain = 0
KST2 120447Z 17009KT 30/19 A2991 RMK A01 T03020188  RH  051%=      5-min Rain = 0
KST2 120448Z 17009KT 30/19 A2991 RMK A01 T03010187  RH  051%=      5-min Rain = 0
KST2 120449Z 17009KT 30/19 A2991 RMK A01 T03010188  RH  051%=      5-min Rain = 0
KST2 120450Z 17009KT 30/19 A2991 RMK A01 T03010187  RH  050%=      5-min Rain = 0
KST2 120451Z 17010KT 30/19 A2991 RMK A01 T03010187  RH  050%=      5-min Rain = 0
KST2 120452Z 17009KT 30/19 A2991 RMK A01 T03010187  RH  050%=      5-min Rain = 0
KST2 120453Z 17010KT 30/19 A2991 RMK A01 T03010187  RH  050%=      5-min Rain = 0
KST2 120454Z 17010KT 30/19 A2991 RMK A01 T03010187  RH  050%=      5-min Rain = 0
KST2 120455Z 17010KT 30/19 A2991 RMK A01 T03010187  RH  050%=      5-min Rain = 0
KST2 120456Z 17011KT 30/19 A2991 RMK A01 T03010186  RH  050%=      5-min Rain = 0
KST2 120457Z 17011KT 30/19 A2991 RMK A01 T03010187  RH  050%=      5-min Rain = 0
KST2 120458Z 17011KT 30/19 A2991 RMK A01 T03010187  RH  050%=      5-min Rain = 0
KST2 120459Z 17010KT 30/19 A2991 RMK A01 T03010187  RH  050%=      5-min Rain = 0

Page generated in 0.1191 seconds.